GFSCGP_850_thetae_075.txt.gz
Theta_e
315 316 318 317 315 313 313 314 314 314 314 315 315 314 317 317 319 321 322 324 326 327 326 327 325 322 319 320 322 322 322 322 322 322 319 321 321 323 317 318 312 316 316 316
314 317 317 314 314 315 314 315 315 315 314 314 316 316 317 318 319 320 321 322 325 325 327 326 324 323 319 319 321 321 321 321 322 323 320 319 320 321 319 319 315 316 316 316
316 316 314 315 314 315 315 316 316 314 314 315 316 317 320 319 318 319 320 320 321 323 325 325 324 323 320 319 319 321 321 321 322 322 322 320 319 319 319 320 315 315 315 315
314 314 314 315 315 315 316 314 315 315 315 314 317 319 319 319 319 318 319 321 321 321 322 325 324 324 323 318 318 320 320 322 321 322 322 319 320 319 319 318 316 315 316 315
314 314 315 314 315 313 315 314 315 315 315 315 315 318 318 316 320 320 320 320 321 321 321 323 324 324 324 319 317 319 320 322 322 321 321 321 321 320 321 319 317 315 315 316
313 313 314 314 314 314 315 316 316 317 317 320 318 319 320 320 320 320 319 319 319 321 322 322 323 324 324 320 317 318 320 321 321 321 321 321 319 320 320 318 317 316 315 315
313 314 314 315 315 314 315 317 318 321 321 320 318 319 320 319 318 318 319 319 318 319 322 322 323 324 324 324 317 317 319 320 321 321 319 319 319 319 320 318 317 316 316 315
312 314 315 315 317 317 316 317 320 319 323 321 316 320 320 319 318 316 317 318 317 317 320 322 323 324 324 324 321 316 318 319 321 320 318 318 320 319 318 317 318 317 316 316
312 311 312 315 316 317 317 318 318 318 319 322 320 320 319 320 319 318 318 317 319 318 318 321 322 323 324 324 324 319 315 317 319 319 317 316 318 319 318 316 316 317 316 315
314 315 314 314 315 316 317 317 319 318 320 321 320 321 321 320 321 319 320 318 316 321 319 321 322 323 324 324 324 325 317 314 316 318 318 317 316 316 318 318 317 317 317 316
313 315 315 316 316 316 316 317 317 318 319 320 321 321 320 321 320 320 320 318 319 318 322 321 322 323 323 324 324 325 325 318 314 315 317 317 317 316 316 316 316 317 317 316
315 312 314 313 313 314 315 317 318 320 319 320 320 321 317 319 319 319 319 318 319 320 318 323 323 323 323 324 325 325 325 325 323 316 314 316 317 317 316 315 314 315 315 315
315 317 316 315 315 316 316 315 316 317 316 319 322 320 317 317 317 318 317 319 319 319 319 320 323 324 324 324 324 325 325 325 326 322 319 315 315 317 317 316 316 315 315 315
315 317 319 318 318 318 320 319 319 317 319 318 319 318 318 319 319 320 319 319 319 318 319 319 321 322 323 324 324 324 324 325 325 326 324 322 318 315 315 316 316 316 315 315
314 314 314 314 313 314 316 317 317 318 318 317 317 317 317 318 319 319 319 318 318 318 319 320 320 320 322 322 322 322 324 325 325 325 325 325 325 321 316 315 315 315 315 315
307 316 317 316 315 314 316 316 314 317 317 316 316 316 315 316 316 314 315 316 316 318 318 319 320 320 320 321 321 322 321 322 323 324 324 324 324 324 324 320 317 316 316 315
307 315 316 316 317 317 315 313 316 315 316 316 318 317 316 317 317 316 317 317 317 318 319 320 320 320 321 320 321 322 321 321 322 322 322 323 324 324 324 324 322 320 318 317
306 308 314 314 314 316 312 314 315 314 315 315 315 314 315 315 316 316 317 318 318 319 319 318 319 320 321 321 321 321 322 321 321 322 322 323 323 324 324 323 323 322 321 321
306 308 315 316 315 313 312 311 312 315 314 316 316 317 317 315 314 314 315 316 317 317 317 318 317 318 318 319 320 320 321 322 322 322 322 323 324 324 324 324 324 323 322 323
308 310 313 312 315 315 311 312 315 313 315 315 316 318 317 317 318 317 316 316 316 316 317 318 318 318 318 318 318 319 319 322 322 322 323 324 324 325 325 324 323 322 323 323
309 312 312 312 313 314 312 312 316 315 315 314 313 315 317 317 316 315 316 317 317 318 318 318 318 319 318 318 317 317 320 323 323 323 323 324 324 324 323 323 322 322 321 320
311 311 312 312 313 313 310 315 315 314 314 312 312 312 315 315 315 315 316 317 316 315 319 319 319 319 318 317 317 319 322 324 324 324 324 324 322 323 322 321 322 321 320 320
312 312 314 313 313 310 311 311 309 310 312 312 312 312 312 314 315 316 316 316 317 316 317 320 321 320 320 320 319 320 322 323 324 323 323 323 324 323 322 321 319 319 317 317
308 307 310 310 310 310 308 308 310 310 310 311 312 312 312 314 315 316 315 316 315 316 316 318 320 321 321 321 322 323 323 323 323 322 321 322 322 321 319 317 314 313 313 312
306 307 309 309 309 309 309 309 308 309 310 311 312 312 313 314 314 314 314 315 313 314 315 316 318 320 319 319 320 321 322 321 322 321 320 320 319 317 316 314 311 308 306 305
307 308 309 309 306 305 306 307 306 306 306 306 306 309 311 312 311 311 311 312 312 312 313 315 317 318 318 319 318 317 319 321 320 318 317 315 313 312 310 308 306 303 303 303

GFSCGP_850_thetae_078.txt.gz
Theta_e
314 317 318 318 318 318 319 319 320 319 317 317 318 319 319 319 321 323 324 326 327 329 330 328 327 325 322 319 320 321 323 323 323 322 322 323 321 318 315 315 314 314 311 315
317 317 316 317 319 318 319 318 319 318 318 317 317 317 318 320 321 322 323 325 326 328 330 327 326 325 323 319 320 322 322 323 323 322 321 323 321 317 319 316 311 308 309 310
317 317 316 317 318 318 319 319 319 318 318 317 318 318 317 318 321 322 323 324 324 327 329 327 325 324 323 319 320 323 321 323 323 322 321 321 322 320 320 315 310 308 310 315
315 315 316 317 317 318 318 318 318 318 318 319 318 319 319 320 321 322 321 324 324 325 328 328 325 324 323 321 318 320 321 322 321 322 321 321 321 322 316 315 311 314 316 317
315 315 315 316 317 316 318 317 317 318 319 319 319 318 320 320 322 322 322 322 324 324 326 327 326 325 323 322 318 320 321 322 322 321 321 321 321 321 316 317 314 316 316 316
315 315 315 315 316 317 317 317 317 318 319 321 320 319 321 321 322 322 321 321 323 325 325 327 326 325 324 323 319 320 322 322 321 323 322 322 321 320 319 319 316 315 315 315
313 314 315 315 315 315 316 318 322 323 323 322 320 320 321 322 322 322 322 321 322 324 325 327 326 325 324 323 321 318 321 321 321 322 322 321 321 321 320 319 319 316 315 315
311 314 314 315 316 316 317 320 322 322 325 324 321 322 322 322 322 322 322 321 322 323 325 326 326 326 325 323 321 316 321 322 320 322 320 321 321 321 321 320 320 318 315 316
310 311 314 314 315 317 318 319 318 320 321 322 322 322 322 321 321 322 322 322 322 323 325 326 326 326 326 324 323 316 318 322 322 321 321 321 321 320 320 320 320 318 317 316
314 313 312 314 316 317 319 319 321 321 323 324 322 322 322 322 321 322 323 324 322 323 323 325 326 326 326 325 323 321 315 319 322 321 321 321 320 320 320 320 320 319 317 317
312 316 317 315 316 317 318 319 320 320 321 323 324 323 322 321 322 322 323 322 322 323 325 325 325 326 326 326 324 323 319 316 320 321 322 320 320 321 320 320 319 319 319 318
315 315 317 317 316 316 317 318 319 321 321 321 322 323 321 322 323 323 323 322 322 322 324 326 326 326 326 326 325 324 323 321 318 318 321 319 319 320 320 319 319 318 318 318
314 315 314 314 315 316 317 318 318 319 319 321 325 322 320 320 321 321 322 321 321 321 321 325 327 327 326 326 326 325 324 324 322 320 318 319 319 318 318 317 319 320 319 319
311 319 319 316 318 318 320 319 319 321 321 320 320 320 320 319 319 319 319 320 321 321 321 321 325 327 327 326 326 325 325 324 324 323 321 319 316 316 317 317 317 318 318 318
313 314 315 317 317 315 317 317 318 318 320 322 320 319 319 318 319 319 318 319 320 320 320 320 321 325 327 327 327 326 325 324 324 324 323 324 321 318 317 317 317 317 317 318
310 311 312 312 313 313 313 314 316 317 317 318 320 320 319 318 318 318 318 318 318 318 319 320 320 320 324 326 327 326 325 323 324 324 324 324 324 323 321 319 317 318 318 318
308 314 315 314 314 313 315 315 315 316 319 320 320 316 317 317 317 318 318 319 319 319 319 320 320 319 320 322 324 323 322 324 323 323 324 324 324 324 324 322 321 319 319 318
308 311 314 314 316 315 314 314 316 318 316 317 317 316 319 319 318 318 317 318 318 318 318 319 320 319 319 319 321 322 325 322 322 322 322 322 323 323 323 322 322 322 320 319
308 310 313 315 313 312 312 312 314 315 314 318 318 318 319 319 319 319 318 318 317 317 317 316 317 317 317 318 319 322 325 324 323 322 322 322 322 322 322 323 322 321 320 320
308 309 312 314 312 313 313 314 315 314 314 315 317 316 316 317 322 321 317 318 318 318 319 319 317 318 318 317 317 319 323 325 322 321 322 323 323 322 322 322 322 321 322 321
309 310 311 312 314 314 313 312 315 315 315 313 313 312 312 315 316 316 316 317 317 317 318 318 319 319 319 318 318 317 321 323 324 324 324 323 323 323 322 322 323 323 323 323
310 311 312 311 312 313 313 313 314 313 312 313 313 313 315 315 314 315 316 317 317 317 318 317 320 321 319 318 318 321 323 324 324 324 323 323 323 323 324 322 322 323 322 322
311 310 312 312 312 313 313 312 312 313 313 313 313 313 314 315 315 315 317 317 316 316 318 318 318 321 320 319 318 320 320 320 321 322 322 322 322 322 322 322 321 321 319 318
310 310 312 312 311 311 311 311 311 311 311 311 310 310 313 313 315 316 316 316 315 316 316 317 317 319 320 319 319 318 318 319 320 321 320 321 321 321 321 320 318 318 318 317
309 309 309 309 310 310 310 310 309 308 309 309 307 306 306 305 308 308 311 312 311 310 311 313 313 317 319 318 318 317 317 318 320 320 320 320 318 319 319 316 315 312 310 309
308 309 310 309 309 308 309 308 306 307 307 306 304 303 302 301 301 301 302 302 310 303 306 311 311 313 315 317 317 318 316 316 317 318 316 315 315 314 311 310 309 304 303 303

GFSCGP_850_thetae_081.txt.gz
Theta_e
311 313 315 316 318 318 320 322 323 323 322 321 321 321 321 322 321 322 322 323 326 328 329 331 331 330 329 327 325 325 323 322 323 323 322 322 321 319 317 315 314 314 313 313
312 315 316 316 318 319 320 321 322 322 322 320 321 321 321 321 321 320 322 322 324 326 328 331 331 330 328 326 325 325 323 323 323 323 322 323 321 319 313 313 313 314 314 313
313 316 317 317 317 319 320 321 322 322 322 320 321 322 322 322 321 320 321 322 322 325 327 331 331 330 329 326 324 324 321 324 324 323 322 322 322 317 314 313 312 310 311 311
316 316 319 318 318 319 321 321 321 321 321 322 323 323 324 323 321 321 323 322 323 323 326 330 331 330 329 327 324 321 321 323 323 323 323 321 320 317 315 313 312 313 314 314
318 317 317 318 318 318 320 320 321 321 321 322 322 322 323 323 323 322 323 322 322 324 325 329 330 329 328 327 325 321 321 324 323 323 322 322 320 317 315 315 314 314 314 313
313 316 317 317 317 317 318 318 319 320 321 322 322 323 324 324 323 324 324 322 322 324 325 328 330 329 328 327 324 322 321 322 322 323 322 322 321 319 317 318 314 310 308 309
313 312 316 317 316 317 318 319 322 323 324 324 323 323 324 323 323 324 324 323 322 323 325 327 329 329 328 327 325 323 323 323 322 322 322 322 322 320 318 318 313 309 307 310
315 315 314 316 316 317 318 319 321 324 328 326 325 323 323 323 323 322 322 322 323 323 324 326 328 329 328 327 326 323 323 323 322 322 322 321 322 322 321 318 314 310 310 313
316 314 313 315 315 316 318 319 319 322 324 325 326 324 324 322 322 323 323 323 322 323 323 326 327 329 328 328 327 324 324 325 324 324 322 322 323 322 321 320 316 313 314 315
312 315 313 314 316 317 317 318 319 320 325 326 324 325 325 323 322 323 324 325 324 324 325 326 327 329 329 329 327 326 323 325 325 324 323 323 322 322 322 322 320 318 316 315
311 312 318 313 316 318 317 318 321 323 323 326 327 326 324 324 322 323 324 324 323 325 326 326 327 328 329 329 328 327 324 323 325 325 324 324 323 322 323 322 322 321 321 320
313 315 316 317 315 316 318 318 320 323 324 324 324 325 322 323 323 323 325 323 323 323 324 327 327 328 329 329 329 328 326 323 323 325 324 324 324 324 322 321 322 322 321 321
311 315 315 319 317 316 317 318 319 321 321 324 329 325 323 322 321 320 320 321 322 322 323 325 328 328 328 329 329 328 328 325 323 324 324 324 324 323 323 322 322 322 322 322
311 316 318 319 318 318 318 319 319 319 322 321 321 322 322 321 321 320 319 320 320 321 322 322 325 328 328 328 329 329 329 327 326 324 324 324 324 323 323 323 323 322 322 321
312 315 317 318 319 317 319 320 320 320 321 322 322 322 321 320 320 320 319 319 319 319 320 321 321 324 328 329 328 329 329 328 328 326 325 324 324 324 323 322 323 323 322 322
310 311 313 314 314 316 316 316 317 317 318 318 318 319 319 320 320 319 319 319 319 319 320 320 321 321 322 328 329 329 329 328 328 327 326 325 324 324 323 323 322 321 321 322
310 312 311 315 314 316 317 316 316 316 316 317 319 319 317 318 318 319 318 318 318 319 320 320 320 321 321 321 326 329 329 329 328 328 328 327 326 325 324 323 323 322 322 321
310 310 313 315 315 316 315 315 316 317 317 318 319 318 318 318 318 318 320 320 320 320 320 320 320 319 321 321 322 324 328 329 328 328 328 327 327 326 325 325 324 323 322 322
310 311 312 313 313 312 312 313 313 314 316 318 318 318 318 318 318 320 320 319 319 320 320 320 321 322 321 321 320 321 324 327 328 328 327 327 327 327 326 326 325 324 323 323
310 310 312 313 313 312 312 314 314 315 315 317 317 316 315 315 318 320 317 317 318 319 319 320 321 323 323 323 322 320 320 323 326 327 327 327 327 326 326 326 325 325 324 323
311 312 312 313 313 313 315 314 314 316 316 314 314 315 315 317 316 315 315 315 318 318 318 319 321 322 322 321 321 322 322 321 322 326 327 326 326 326 325 325 325 324 324 323
312 313 313 312 314 314 312 313 315 315 314 314 314 314 314 314 315 315 315 316 318 318 318 319 320 320 317 318 318 322 324 323 323 323 325 326 326 325 325 325 324 324 323 322
313 311 312 311 312 314 315 313 314 313 313 314 313 312 312 313 314 316 316 317 318 317 317 318 319 318 315 316 318 319 320 321 323 324 325 326 325 324 324 324 323 322 321 321
311 310 313 314 314 313 312 313 312 312 312 311 311 310 310 310 311 311 314 314 312 313 312 312 313 310 312 314 315 317 316 317 319 319 320 321 322 322 321 321 320 319 319 320
310 311 310 311 311 311 312 311 310 309 310 309 309 309 308 307 307 306 308 306 306 307 305 304 310 312 311 312 312 314 315 316 315 315 316 316 316 316 316 314 314 313 312 310
309 311 311 312 310 311 311 308 307 308 307 306 306 305 305 304 303 303 303 300 299 299 297 298 305 310 309 308 307 311 314 311 312 311 309 308 308 308 306 306 306 301 304 302

GFSCGP_850_thetae_087.txt.gz
Theta_e
310 305 306 310 313 317 318 319 319 317 318 319 320 320 318 317 318 319 322 324 324 324 326 328 329 330 330 330 330 328 327 326 324 324 323 323 321 323 322 322 324 324 324 325
310 309 308 310 312 314 315 318 319 319 319 319 319 320 316 317 317 319 321 322 323 323 326 329 330 331 331 330 329 328 327 325 323 324 324 323 321 322 321 322 324 326 326 325
314 315 315 314 313 313 314 314 314 318 318 319 320 320 321 319 319 321 321 322 322 323 326 329 330 331 331 330 329 328 327 323 323 323 325 323 321 321 320 320 322 323 323 323
317 316 317 316 315 313 314 315 317 320 321 323 319 322 321 320 320 319 320 321 321 321 325 330 331 331 331 330 329 328 325 321 322 323 324 322 321 322 321 321 321 322 323 323
316 317 317 318 316 314 315 317 319 320 322 322 321 322 321 321 321 320 320 320 322 321 325 330 331 331 331 331 330 328 325 320 320 322 323 321 321 321 321 320 321 320 319 320
314 313 314 316 316 315 316 319 321 320 322 326 323 322 321 320 321 321 321 321 322 321 327 328 330 331 331 331 330 327 325 319 323 322 323 321 321 321 321 321 318 320 318 318
311 312 313 313 314 315 319 321 326 325 326 324 321 321 321 320 321 321 321 320 321 321 324 331 332 332 331 331 330 328 326 320 322 322 322 322 320 321 321 321 319 318 318 317
311 315 312 314 314 318 319 321 325 325 326 326 321 322 320 320 320 321 322 322 322 323 324 331 332 332 331 331 330 329 326 319 323 322 321 321 321 321 321 320 320 318 317 314
312 315 314 314 315 314 319 320 318 321 321 326 325 325 321 320 321 320 319 322 322 324 327 331 332 331 331 330 329 328 327 321 322 323 322 321 321 321 321 320 319 317 316 314
309 312 313 314 314 316 317 318 322 321 324 328 327 326 325 323 321 321 321 320 324 324 326 329 329 331 330 330 329 328 328 323 318 322 322 322 321 321 321 321 320 317 316 315
310 311 313 312 315 316 316 319 320 320 323 330 331 330 325 324 322 323 319 321 323 325 326 325 330 330 330 330 329 329 328 324 321 321 322 322 322 322 322 321 321 320 317 315
310 314 313 312 313 314 316 317 320 325 323 325 327 327 324 323 322 319 318 319 320 321 326 326 328 330 330 330 329 329 328 326 322 324 322 322 323 321 322 322 322 321 320 318
307 315 317 315 314 314 315 318 319 319 320 325 326 327 324 322 322 321 319 320 319 320 320 320 329 330 330 330 329 329 328 328 325 323 324 323 323 322 322 322 322 321 321 320
309 312 315 318 319 315 319 318 318 321 323 321 325 325 322 321 322 321 320 319 319 319 320 320 321 327 330 330 330 329 329 329 328 325 325 325 324 322 323 322 321 322 321 321
309 312 313 313 313 316 316 318 318 320 320 323 322 322 322 321 322 321 320 320 320 320 320 320 321 321 321 326 329 330 330 329 329 328 324 326 326 325 324 322 321 322 322 321
309 311 311 311 312 313 317 317 317 317 320 322 321 321 321 319 320 319 320 320 320 320 321 321 321 322 323 323 322 326 330 330 329 329 328 325 325 326 326 325 324 323 322 321
309 310 311 313 312 312 316 317 318 318 318 318 321 320 319 320 319 318 318 319 319 319 320 321 321 322 323 323 323 322 324 328 330 330 329 329 326 325 326 326 326 325 324 324
308 309 311 310 309 315 316 315 316 315 317 317 319 318 317 319 317 316 316 316 316 318 319 320 320 320 321 322 321 322 322 322 326 330 330 330 329 327 325 326 326 326 326 326
307 308 308 311 313 312 311 312 313 312 318 318 318 317 316 316 316 315 315 316 316 318 319 321 321 320 320 316 318 319 321 323 323 326 328 328 328 329 328 326 326 325 326 326
307 308 309 309 313 311 311 313 314 315 318 316 316 316 316 315 316 315 316 315 316 318 320 320 320 319 315 315 316 318 320 321 323 322 322 323 326 328 329 329 328 327 326 326
308 308 309 309 311 312 312 313 314 316 316 314 313 313 312 313 313 312 313 311 311 311 311 312 315 315 314 314 315 316 317 319 319 319 320 321 322 324 328 329 329 328 327 326
309 309 309 309 310 311 313 314 316 315 313 312 311 311 311 311 310 310 309 308 309 310 310 309 311 311 311 312 311 312 313 314 316 316 318 319 320 322 325 327 327 328 328 328
310 309 309 309 309 311 312 313 312 311 310 310 309 309 309 308 307 307 306 305 305 305 306 306 307 308 306 306 308 309 310 311 312 314 314 314 316 318 320 322 323 322 325 327
309 311 310 310 312 310 308 309 308 308 307 307 307 306 306 305 305 304 304 302 302 302 303 303 303 302 303 304 305 307 308 308 308 311 311 311 310 311 313 314 316 317 315 313
310 310 311 312 309 307 307 305 307 305 305 305 305 304 303 303 302 301 302 300 298 298 296 296 298 299 301 302 303 305 307 307 305 306 308 308 307 307 306 310 308 305 306 302
305 305 309 307 303 306 304 303 303 303 302 301 302 300 299 299 298 298 299 298 298 297 296 297 298 298 299 300 301 302 303 303 303 304 304 303 302 302 300 297 300 301 296 297

GFSCGP_850_thetae_090.txt.gz
Theta_e
309 304 304 306 309 314 315 316 316 316 317 317 317 316 316 316 318 317 316 318 318 318 320 325 327 328 329 330 330 329 328 328 327 323 322 322 322 322 322 323 323 324 329 329
309 307 306 307 309 311 313 314 316 317 317 318 318 318 317 318 318 317 316 319 319 319 322 325 328 329 330 329 330 330 329 327 326 324 320 322 321 323 321 321 323 323 325 328
309 312 311 310 310 310 312 313 314 315 317 317 318 318 318 319 318 318 318 321 321 322 322 325 329 329 330 330 330 330 329 326 326 323 323 323 321 320 320 320 321 323 324 325
314 315 317 317 317 315 314 313 314 315 320 320 319 324 320 319 319 319 317 318 320 321 321 323 329 330 330 330 330 330 328 327 325 321 323 321 322 320 320 320 322 322 324 324
315 317 316 317 318 315 315 313 314 316 320 320 321 323 321 319 320 320 320 320 321 320 320 324 329 329 329 330 330 329 328 327 324 319 322 322 321 320 320 320 320 321 321 321
312 313 313 314 314 316 315 315 318 318 321 322 320 322 322 321 320 320 320 320 321 321 319 322 326 330 330 330 330 329 328 326 322 319 324 322 323 321 321 321 321 322 321 322
311 311 312 314 315 314 317 319 323 323 324 320 320 323 321 320 320 320 320 320 321 320 320 327 329 330 330 330 330 329 328 325 321 318 321 323 322 321 321 321 321 321 322 322
309 310 311 312 313 315 315 319 325 323 324 322 320 321 320 319 319 320 320 320 321 319 323 328 328 329 330 330 330 330 328 325 321 317 320 323 323 321 321 320 321 321 320 321
309 313 313 313 314 313 316 319 318 321 322 323 321 322 321 321 321 321 320 320 318 318 327 329 329 330 330 330 330 330 328 325 322 316 319 321 321 320 320 320 320 320 320 319
308 310 310 314 314 314 315 317 322 321 323 326 324 324 328 326 324 319 318 318 319 324 329 330 330 330 330 330 330 330 328 326 323 317 319 321 321 320 320 321 321 320 320 319
309 309 311 311 314 317 317 319 317 320 322 325 327 330 325 325 324 322 321 318 321 327 330 330 330 330 330 331 330 329 328 327 325 319 317 320 322 320 320 321 320 320 320 319
307 311 310 310 310 315 316 318 318 324 322 323 326 325 324 323 322 321 321 319 318 318 324 330 330 331 331 330 330 329 328 327 326 323 317 317 321 321 320 320 321 321 320 320
307 311 314 314 314 315 316 316 316 319 319 323 324 325 322 322 321 321 321 319 319 319 323 328 329 329 329 330 330 329 329 328 327 325 319 318 319 322 321 320 321 321 321 320
308 309 313 316 315 315 316 314 316 318 322 319 323 322 323 321 320 322 321 320 319 320 321 322 327 328 328 328 328 327 327 328 328 327 324 321 320 319 319 321 321 321 321 321
308 310 312 312 311 315 316 316 316 318 319 323 322 322 321 321 320 322 321 319 320 320 322 323 323 322 323 326 328 328 328 328 327 327 327 326 324 321 322 321 320 321 320 321
307 308 309 310 311 311 311 316 316 317 318 320 320 321 319 319 321 319 320 319 319 320 322 322 322 322 322 322 322 325 327 328 327 327 326 326 326 324 324 324 323 322 321 321
308 309 309 311 310 308 312 315 317 315 317 316 318 318 319 320 320 319 317 317 318 320 321 320 319 317 317 318 320 322 323 323 326 328 326 325 325 325 325 325 325 325 324 323
307 307 308 309 309 308 311 311 314 317 318 316 318 319 318 316 316 316 316 318 318 320 319 317 316 315 315 317 318 320 322 322 325 326 326 325 324 324 324 325 325 325 325 325
306 306 305 308 310 310 308 310 313 315 318 317 317 317 316 316 315 313 312 312 313 314 314 316 315 313 313 314 315 317 319 321 321 321 323 323 324 326 324 324 324 325 326 326
306 305 306 306 310 309 310 312 312 315 318 316 315 315 315 315 315 313 308 309 309 310 310 312 313 314 313 313 314 314 315 315 317 318 318 319 320 321 323 326 325 324 324 325
307 305 307 307 308 310 311 313 314 315 316 312 312 312 312 312 312 307 307 306 306 307 307 308 309 311 312 312 312 312 312 313 311 313 315 316 318 318 320 322 324 325 325 325
309 309 308 306 310 310 311 314 315 312 310 310 309 309 308 308 306 304 302 304 303 303 304 305 306 307 307 309 310 310 309 308 309 311 311 311 312 314 316 317 320 322 323 323
311 309 308 307 307 310 309 308 308 308 308 307 306 306 306 305 303 303 302 302 301 302 301 301 302 302 302 303 305 307 307 308 307 308 308 309 309 310 311 314 316 318 318 319
306 307 310 310 310 307 308 306 306 305 305 304 304 303 303 302 301 300 300 300 300 300 299 298 298 299 300 301 302 303 305 306 307 305 306 306 306 306 307 308 308 309 310 310
307 308 306 311 308 305 304 304 304 303 302 302 303 301 300 300 298 298 297 297 297 297 296 297 297 298 298 300 301 302 303 304 305 305 303 303 303 303 303 304 304 303 302 302
301 302 306 304 300 303 300 300 300 301 300 298 298 298 297 298 296 295 295 294 294 296 296 296 296 297 297 298 299 300 301 302 302 301 300 299 298 299 297 297 297 295 294 293

GFSCGP_850_thetae_093.txt.gz
Theta_e
308 306 305 304 309 313 315 314 315 314 315 317 317 315 315 314 316 315 316 317 317 319 320 318 321 324 326 329 330 330 329 328 327 327 325 323 322 322 323 325 326 328 326 328
308 305 305 305 306 309 311 312 312 314 315 315 315 315 315 315 315 316 317 317 318 318 316 317 321 325 326 328 329 329 329 328 328 327 324 322 321 321 322 322 323 324 326 327
308 310 309 306 306 307 307 309 311 313 314 315 316 316 316 317 316 317 318 318 319 317 316 318 322 324 327 329 329 329 329 329 328 326 324 322 320 320 320 321 321 321 322 324
309 312 316 316 316 314 315 311 312 313 317 315 317 317 316 316 318 317 318 319 320 320 317 319 322 325 326 328 329 329 329 329 328 325 324 319 321 321 321 319 320 320 322 324
315 316 316 316 316 315 315 314 314 312 317 319 319 319 316 317 318 318 318 319 320 320 319 319 321 323 326 328 329 329 329 329 327 325 324 319 321 321 319 319 320 321 321 322
312 313 313 313 314 315 315 315 315 317 318 319 316 319 318 317 318 318 319 319 320 320 319 319 320 324 328 329 329 329 329 329 327 325 322 319 321 321 320 319 320 320 321 322
311 312 311 314 314 313 316 317 314 320 320 319 317 319 318 317 317 318 319 320 320 319 319 318 321 325 328 329 329 329 329 329 327 325 320 319 320 322 321 320 321 321 320 320
310 308 311 312 313 313 315 317 319 320 321 321 317 318 319 319 318 319 319 319 320 320 320 319 320 324 326 329 329 329 329 329 327 324 319 318 321 321 320 321 321 321 322 321
308 310 311 311 312 313 315 317 317 321 321 322 320 319 320 323 323 322 321 319 318 319 318 319 321 324 325 328 329 329 329 329 327 324 319 318 322 320 320 320 320 321 321 322
308 310 311 313 313 313 315 316 320 320 324 326 321 321 326 325 324 322 321 316 316 320 320 322 325 325 325 328 329 329 329 329 327 324 319 318 321 321 321 320 320 320 320 321
309 308 310 312 314 315 315 317 316 318 321 325 325 326 326 324 322 322 321 320 318 318 327 327 327 326 327 327 329 329 329 329 327 324 321 317 319 320 320 320 320 320 320 320
307 310 310 309 309 313 315 316 318 320 323 321 324 320 323 322 321 319 320 320 319 321 327 328 328 327 327 328 329 330 329 329 328 325 323 318 318 319 319 320 320 320 320 320
308 311 312 313 314 313 316 315 315 315 317 320 322 320 321 321 320 318 319 320 320 322 327 328 328 328 327 327 327 329 329 328 327 326 324 321 318 320 319 319 320 320 320 320
307 308 311 312 313 313 315 315 315 316 320 320 321 321 322 321 319 318 318 319 320 322 322 326 327 327 328 328 328 328 328 328 327 326 325 324 320 318 318 318 319 319 320 320
307 308 310 310 312 312 314 315 316 317 317 320 319 320 320 321 320 319 317 319 321 321 320 319 321 323 324 326 327 327 327 327 327 327 327 325 323 321 320 320 319 319 319 320
306 307 308 308 309 311 311 309 308 315 317 317 319 319 318 320 319 318 318 319 318 319 316 316 317 320 321 321 323 325 326 326 326 327 326 325 325 324 323 322 322 321 320 320
307 307 308 309 308 307 307 310 311 316 315 316 319 318 318 320 319 316 318 316 318 314 312 312 315 317 318 320 321 321 322 323 324 324 323 324 324 324 324 324 324 323 322 323
306 306 306 308 307 306 307 307 315 316 315 315 316 318 316 315 313 312 314 313 310 308 309 309 311 313 315 316 318 320 321 322 323 324 324 323 323 323 323 324 324 324 324 324
305 305 304 306 307 305 306 310 311 311 314 317 318 316 315 313 311 309 307 307 305 305 306 308 310 311 312 313 313 315 316 318 319 321 322 322 322 322 323 323 323 323 323 324
304 304 305 304 307 305 308 312 312 313 317 315 316 317 316 315 314 308 304 304 306 303 304 306 307 308 310 310 310 312 312 312 313 313 315 317 319 319 320 321 322 323 323 323
305 304 306 306 308 306 308 310 312 313 312 312 313 313 313 310 309 303 302 301 303 307 304 304 305 307 307 308 309 310 309 309 308 309 310 311 312 313 315 317 318 320 320 321
306 305 305 306 308 307 308 311 313 310 308 308 307 307 306 304 302 300 300 300 301 301 304 304 302 302 304 305 306 306 306 306 306 308 308 308 309 309 310 312 314 316 318 318
306 307 308 305 305 308 307 307 306 305 303 302 303 304 303 301 298 297 296 296 296 297 298 298 300 300 300 302 303 304 304 304 304 305 307 307 306 307 308 308 309 310 312 313
308 304 307 309 309 308 306 304 302 302 302 302 300 301 299 298 298 296 295 295 295 295 296 297 298 299 300 301 301 302 303 303 303 304 304 305 306 306 305 306 305 305 306 305
303 303 303 307 305 303 301 301 300 300 297 299 300 299 296 294 293 295 294 293 293 294 295 296 296 297 297 298 299 300 301 301 302 302 300 299 302 303 303 302 302 302 301 299
299 299 301 303 298 301 299 298 298 297 296 296 297 296 295 294 293 292 289 289 291 292 292 292 292 292 293 294 295 297 297 298 298 298 297 296 296 296 296 293 293 294 295 293

GFSCGP_850_thetae_096.txt.gz
Theta_e
307 307 306 306 308 310 312 314 314 313 313 316 315 314 313 313 314 313 315 317 318 318 319 319 320 318 318 325 326 328 330 329 327 326 325 325 325 325 324 324 325 326 326 327
306 306 307 306 305 307 308 309 310 310 312 314 313 314 313 312 313 314 315 316 317 318 319 319 319 317 318 322 325 327 330 329 328 327 325 325 324 322 322 322 323 324 327 325
309 310 307 305 305 305 306 306 307 309 311 312 313 311 311 313 314 315 315 317 317 318 319 319 320 317 317 320 323 327 329 329 329 327 326 325 323 322 322 321 322 323 324 326
308 308 313 311 309 307 312 309 310 312 312 312 315 314 312 312 313 313 314 316 317 318 318 319 320 317 317 320 324 328 329 329 329 328 327 325 323 321 320 321 320 320 323 324
311 315 314 315 315 313 314 314 314 314 312 318 317 315 313 312 314 314 314 316 317 318 319 320 319 319 318 323 325 328 329 329 329 328 328 324 323 320 320 320 319 320 320 321
312 313 312 313 314 314 314 314 314 315 316 316 314 315 313 311 312 314 315 316 317 318 319 320 319 319 320 323 328 329 329 329 329 329 327 324 322 319 321 320 319 320 322 320
312 313 311 313 313 313 315 313 310 315 318 315 314 315 314 314 314 316 317 316 317 318 319 320 319 319 320 322 326 329 329 329 329 329 327 324 320 320 321 319 320 321 321 322
310 308 312 312 312 313 315 313 312 319 320 319 316 318 316 319 320 321 320 318 316 317 317 319 319 319 319 321 325 328 329 329 329 329 327 324 319 320 321 320 319 321 321 321
309 308 309 311 311 311 314 316 315 319 315 319 318 316 315 321 321 320 319 319 319 319 318 317 319 319 319 321 323 327 329 329 329 329 327 324 318 320 321 320 320 320 321 321
307 309 311 312 312 312 314 315 318 318 321 320 319 318 320 323 322 320 318 318 319 319 320 323 320 319 321 323 325 327 329 329 329 329 327 324 318 318 320 320 320 320 320 321
307 308 310 313 314 313 314 314 315 318 319 324 322 319 325 324 321 320 318 317 319 321 322 326 322 323 324 324 325 326 328 329 329 328 327 324 318 317 319 320 320 320 320 320
307 309 310 310 309 312 313 315 315 320 319 320 322 319 321 322 322 319 318 317 319 322 327 326 326 325 325 325 325 326 327 328 328 328 327 324 319 318 319 320 320 320 319 319
308 311 312 314 313 311 315 315 315 315 315 315 317 316 320 320 320 318 318 318 319 321 323 325 325 325 325 324 325 326 326 327 327 327 326 325 323 318 318 319 319 320 320 320
307 309 309 311 311 311 313 314 314 317 317 317 319 317 317 320 319 319 318 318 319 316 317 318 321 323 324 325 325 326 326 327 327 326 325 325 324 322 319 318 318 318 320 320
306 307 309 309 309 311 311 312 313 315 315 317 315 317 316 318 319 318 318 319 317 313 312 313 315 318 321 323 324 325 326 326 326 325 325 325 325 324 322 319 319 319 318 318
305 306 307 308 307 310 310 308 307 307 309 311 316 317 316 317 319 318 319 318 314 310 308 307 310 314 315 320 320 322 324 325 326 325 325 324 324 324 324 323 322 321 321 320
306 306 307 308 307 306 304 306 313 314 315 315 316 316 315 318 318 317 317 314 310 307 308 308 307 309 312 317 317 318 322 322 324 323 322 322 321 322 323 324 323 323 324 323
306 306 306 307 306 304 302 304 312 313 315 315 314 314 316 312 309 307 308 307 305 304 307 310 310 310 311 311 312 317 319 320 321 320 321 320 321 322 322 322 322 322 322 323
304 304 305 306 307 304 305 309 311 312 313 316 317 315 312 311 309 305 303 303 304 303 304 305 307 309 311 309 307 310 311 313 317 318 319 319 319 321 321 322 322 322 322 321
303 303 305 304 306 303 303 310 309 311 314 311 316 315 315 311 313 306 300 300 300 302 304 305 305 306 308 307 306 308 309 310 311 311 312 313 315 316 317 317 318 319 320 321
305 304 306 306 308 306 306 307 309 312 311 308 311 313 311 306 303 299 299 298 297 300 302 299 302 303 303 304 304 304 304 305 305 307 308 309 310 310 310 311 313 315 317 318
305 306 304 306 307 306 307 308 309 307 303 304 305 305 303 301 298 296 296 294 295 297 298 298 300 300 301 302 303 303 303 302 303 305 306 307 308 308 308 308 309 310 312 313
304 307 309 306 305 306 305 305 303 301 299 299 300 300 298 297 295 294 293 294 296 296 296 296 297 297 299 299 301 302 301 302 301 302 303 304 305 305 306 306 307 307 306 307
305 302 306 305 307 305 303 300 299 299 298 298 298 297 296 295 294 292 292 293 294 294 294 295 296 296 297 298 299 300 300 301 301 301 300 300 303 303 303 303 303 303 303 302
301 300 300 305 301 300 298 298 296 296 295 296 295 294 293 293 292 292 291 289 290 291 291 292 292 293 295 296 297 298 299 299 300 300 300 298 299 299 300 299 297 296 296 296
298 297 298 301 296 298 296 295 295 294 293 293 293 291 291 291 290 290 290 288 288 288 289 289 289 290 290 292 293 294 296 296 296 296 296 296 295 295 296 294 293 291 288 288

GFSCGP_850_thetae_099.txt.gz
Theta_e
308 310 311 309 310 309 312 314 315 314 315 315 317 317 317 315 316 316 315 316 316 317 318 318 318 319 319 319 318 326 329 328 330 326 324 324 324 326 326 324 325 326 328 326
308 311 309 308 308 310 310 311 311 311 312 313 314 314 315 314 315 315 315 316 315 316 317 317 318 318 319 319 319 319 327 328 330 328 326 325 324 325 326 325 324 324 325 326
310 311 308 308 308 308 308 309 309 310 309 312 313 314 313 313 312 312 313 314 315 316 316 317 318 318 319 319 318 318 322 327 330 329 327 326 325 324 324 323 323 324 325 325
310 309 307 307 308 308 309 308 308 310 313 314 315 316 314 314 313 314 314 314 315 315 315 316 317 317 318 320 317 318 323 326 329 329 328 327 326 322 321 321 322 322 323 324
312 313 313 311 312 309 312 313 312 313 315 316 316 315 313 313 314 316 316 316 317 316 315 316 316 316 318 319 317 318 323 327 328 330 328 327 327 324 322 321 321 321 320 322
312 313 313 313 314 314 314 315 315 316 316 316 315 314 314 315 315 318 320 320 318 316 316 316 317 318 319 319 318 320 322 325 329 330 329 328 327 323 322 320 320 320 319 320
313 314 312 313 315 314 314 313 315 316 317 315 314 316 316 316 318 321 320 319 320 320 320 317 316 318 319 319 320 322 321 324 329 330 329 328 327 323 321 320 321 320 319 320
313 313 313 313 313 315 314 313 315 315 319 319 317 319 317 322 321 320 319 319 319 321 321 320 317 317 320 320 323 323 321 326 328 329 329 328 327 323 319 320 320 320 321 321
311 310 310 312 312 313 315 315 315 315 316 317 316 318 316 322 322 322 320 319 320 322 323 323 320 316 320 321 322 321 322 327 328 329 329 328 326 323 318 320 320 319 320 319
308 313 311 312 313 314 315 315 317 316 319 320 319 320 321 323 324 322 320 319 320 321 325 324 322 318 316 321 323 323 324 327 328 329 329 328 326 322 318 320 320 320 321 320
308 311 313 314 314 315 315 316 314 315 317 320 321 321 323 323 323 323 320 318 320 318 323 325 323 320 319 321 324 322 325 329 328 329 328 327 325 321 318 320 320 320 320 321
310 310 312 312 311 312 313 314 314 316 319 316 319 317 321 321 321 322 320 320 318 316 318 323 324 324 324 325 324 324 324 326 327 328 328 326 325 320 317 319 320 320 320 320
311 312 316 316 313 312 314 315 314 314 316 316 317 317 318 317 320 319 319 319 315 313 312 315 321 322 322 322 323 322 323 325 327 327 327 326 323 321 317 319 320 320 320 319
309 310 310 313 312 312 313 313 314 315 316 316 316 316 315 315 317 318 319 318 315 310 309 309 313 315 319 321 321 321 321 326 326 326 326 326 324 323 318 318 319 319 320 320
308 309 309 309 309 311 311 311 310 310 312 314 313 313 312 314 317 319 319 314 312 309 306 305 307 309 312 319 320 321 322 324 325 325 325 325 325 324 323 319 319 319 318 319
307 308 308 308 308 309 308 308 306 307 310 311 311 311 312 315 315 319 318 312 310 307 305 303 306 308 309 313 318 321 321 322 323 323 324 324 324 324 324 323 320 319 319 319
307 308 307 305 307 307 305 305 306 312 314 315 316 315 315 315 312 313 310 308 306 303 303 303 304 306 305 309 314 318 319 321 321 321 321 322 322 321 321 322 322 322 322 321
307 307 307 307 307 304 304 305 307 309 311 314 316 316 313 309 304 302 302 302 301 301 303 303 302 306 307 307 311 317 318 317 318 318 320 320 320 320 320 320 320 321 320 321
306 306 307 307 307 305 306 310 309 310 308 312 316 314 310 309 307 299 298 299 300 299 301 303 306 307 306 309 310 314 315 312 317 317 313 316 318 318 318 319 319 319 320 320
304 305 307 307 306 306 306 307 308 309 311 308 310 314 310 310 309 302 296 296 296 297 298 300 303 306 307 306 306 307 306 307 308 308 308 311 313 314 314 314 316 317 318 318
306 306 307 307 307 307 307 307 307 305 308 306 305 307 307 304 300 295 296 296 294 293 295 298 300 301 301 303 305 305 304 305 304 304 304 306 307 308 308 309 310 311 313 314
306 307 307 306 307 307 306 307 309 305 301 301 300 299 297 296 295 294 294 293 293 295 296 296 298 298 299 300 301 301 302 301 302 304 305 306 306 306 306 306 307 308 308 309
308 307 307 307 308 304 303 301 299 299 297 297 297 297 296 295 293 294 296 294 291 292 293 295 296 296 297 298 298 298 298 299 300 301 303 304 304 305 304 304 304 304 304 304
304 301 304 304 302 299 298 297 296 295 293 294 294 294 294 292 292 292 292 293 292 291 292 292 294 295 295 295 296 296 296 296 298 299 300 300 301 301 301 302 302 302 301 300
300 299 298 302 299 298 295 295 294 293 292 292 292 292 291 290 288 289 288 288 290 290 290 291 291 291 292 293 294 295 295 295 295 296 296 297 297 297 297 298 298 297 296 295
297 296 298 299 295 296 293 293 292 291 290 291 289 288 288 287 285 286 286 285 285 285 287 289 289 289 289 290 291 292 292 293 294 294 294 294 294 293 293 292 291 290 289 289

GFSCGP_850_thetae_105.txt.gz
Theta_e
306 308 309 311 315 318 319 320 321 320 321 322 322 322 322 321 321 321 320 320 321 321 321 321 321 320 320 322 327 331 336 340 337 329 333 336 335 330 324 322 324 330 330 329
307 307 309 311 313 316 317 318 318 317 318 319 320 320 319 319 320 320 320 321 321 321 321 321 321 321 321 322 324 330 334 337 337 328 332 336 335 331 326 323 325 325 328 327
307 308 308 309 311 314 315 315 315 315 316 317 317 317 317 318 318 317 318 319 319 320 320 320 321 321 322 322 323 326 332 334 337 333 335 336 333 330 327 326 325 325 326 327
309 309 310 309 310 312 314 314 313 313 315 316 316 317 319 319 319 318 318 318 319 319 319 318 319 319 321 321 322 324 328 332 335 336 335 335 334 332 329 328 326 327 328 327
311 309 310 310 310 311 312 312 312 313 315 315 315 317 318 318 317 320 322 324 324 324 324 324 323 322 319 320 321 323 326 330 334 336 335 335 334 333 331 331 327 326 326 328
312 311 312 311 310 311 311 313 313 313 314 317 317 318 319 319 320 321 324 323 324 325 325 326 325 324 321 321 320 322 326 329 332 335 334 335 334 332 332 331 328 325 324 328
313 315 312 312 312 312 312 315 318 319 320 318 317 318 318 322 324 324 324 324 324 325 325 326 327 328 325 322 321 321 327 329 331 334 334 335 333 333 332 330 328 328 325 326
314 317 314 314 313 312 315 315 316 317 318 317 318 318 319 323 324 323 323 323 323 324 324 324 327 330 328 325 322 321 324 329 330 334 334 334 334 334 332 330 328 327 326 324
314 316 314 314 314 314 316 316 315 319 321 322 321 320 324 323 323 323 323 323 324 322 321 321 322 324 330 327 323 323 329 330 331 334 333 333 333 332 331 330 327 327 327 325
314 315 314 314 315 315 316 316 318 319 319 318 316 318 327 323 321 321 321 323 323 321 319 316 316 323 328 327 325 330 332 331 332 332 331 332 332 332 331 329 327 326 324 323
312 314 314 315 315 315 317 318 319 319 321 324 319 326 322 320 319 319 321 322 321 319 317 312 311 321 326 328 330 332 332 331 330 329 328 330 330 331 330 327 326 324 322 325
312 313 316 317 314 315 315 316 317 319 320 319 322 323 319 318 317 319 321 320 318 315 312 309 309 316 321 327 331 330 328 330 328 327 327 328 330 329 329 326 325 325 324 324
312 314 316 319 316 316 316 316 317 319 319 321 321 323 318 317 317 320 319 317 315 313 310 307 309 309 309 319 325 325 326 325 326 327 326 327 329 328 328 326 323 325 324 325
312 314 315 316 315 316 317 317 316 317 319 318 318 317 320 320 320 318 313 311 310 308 307 306 305 305 303 308 319 324 323 324 325 326 325 327 327 326 326 325 323 323 322 325
313 314 315 315 315 316 315 316 315 316 314 314 315 318 320 316 312 308 306 305 304 304 303 302 302 304 300 302 310 321 322 322 323 323 324 325 325 325 324 324 322 322 322 323
311 309 310 311 312 313 313 311 309 308 310 314 314 319 314 309 306 301 300 300 300 299 299 297 298 304 299 299 302 310 319 322 322 323 323 323 324 323 321 322 321 321 321 323
309 309 310 309 308 308 308 309 310 311 314 316 319 316 314 308 302 298 297 296 296 295 295 297 298 300 301 297 299 302 309 314 320 321 322 322 321 321 321 320 321 321 320 320
308 308 308 308 308 308 310 311 310 314 312 311 311 310 306 300 297 295 295 294 294 294 295 296 298 299 303 301 300 301 304 306 312 315 315 317 319 320 320 320 320 320 320 319
309 309 309 308 309 309 312 310 310 311 311 309 309 308 308 302 303 299 294 293 293 294 295 295 297 299 300 303 302 301 303 303 305 306 303 305 312 315 316 318 318 318 320 320
308 309 309 309 308 312 311 310 309 310 312 306 306 305 305 304 311 301 294 293 293 294 296 296 298 299 302 301 302 305 303 301 306 304 303 301 305 309 309 311 312 313 316 314
309 310 311 309 310 311 304 305 307 314 307 302 302 302 301 300 296 294 292 292 292 293 293 293 296 298 297 299 301 303 302 302 301 301 301 299 302 305 306 305 309 308 308 308
310 311 311 311 310 313 299 306 308 302 298 299 299 300 299 297 294 292 291 291 290 293 293 292 292 293 296 297 298 299 299 299 300 300 301 303 305 305 305 306 306 303 302 304
310 307 308 305 304 299 298 297 296 299 298 297 298 298 297 296 294 292 291 291 290 290 290 291 292 291 290 292 293 295 293 295 298 299 299 299 302 301 302 302 302 302 301 301
306 305 306 304 300 299 298 297 296 296 296 295 295 296 296 295 294 293 291 290 289 289 289 290 290 290 289 288 287 288 290 290 292 292 295 295 298 299 299 299 297 298 296 295
304 304 302 302 299 298 296 295 295 294 294 294 294 293 293 294 293 292 290 289 288 288 288 287 288 288 287 287 286 287 288 289 289 289 290 290 290 292 293 294 294 293 293 293
301 301 303 303 298 298 295 294 293 293 292 292 292 292 290 290 290 290 288 287 287 286 286 286 286 286 286 285 284 286 287 288 287 287 287 287 287 287 286 287 289 290 290 290

GFSCGP_850_thetae_108.txt.gz
Theta_e
311 308 307 307 310 314 316 317 319 319 319 321 321 321 321 322 321 321 321 321 321 321 321 321 321 321 319 319 321 326 338 335 334 337 340 340 338 337 335 333 330 325 322 328
311 310 308 307 308 310 312 316 318 320 322 321 322 323 322 322 322 322 322 321 321 321 321 321 322 322 320 319 320 325 338 337 334 338 337 339 338 336 334 331 327 323 324 329
311 310 309 307 308 309 312 314 319 320 320 319 318 320 320 320 320 319 319 320 321 321 321 321 321 321 322 321 321 323 329 339 336 337 337 338 338 337 335 331 326 323 325 328
310 311 310 307 307 309 311 314 317 317 317 315 317 317 318 319 319 319 318 318 319 319 320 320 319 319 320 323 323 322 323 330 338 337 337 335 337 336 334 331 329 326 323 323
308 311 311 308 308 309 311 314 316 315 315 314 315 316 318 319 319 319 320 324 324 324 324 324 324 324 323 322 321 323 324 327 334 335 335 333 337 336 333 330 330 327 325 323
307 310 312 308 311 310 312 313 313 313 313 315 315 316 316 317 318 320 325 324 324 325 326 326 326 327 327 324 323 322 324 324 329 336 333 334 337 335 333 331 331 328 327 325
307 311 312 310 310 311 311 312 316 318 318 317 315 315 316 321 323 324 324 324 324 324 324 323 324 325 328 330 331 322 322 325 327 334 333 334 337 336 334 332 331 329 324 323
309 315 314 312 312 310 311 312 318 316 317 317 315 318 317 321 323 323 324 324 323 323 321 321 320 320 322 326 329 329 322 322 326 330 335 334 337 336 333 333 332 330 322 319
316 316 314 314 312 313 312 314 315 318 320 322 318 323 323 322 323 324 323 323 323 321 319 317 315 315 319 323 328 328 328 322 326 329 334 336 336 335 334 333 332 328 328 325
313 319 315 315 315 313 315 314 318 318 326 327 322 325 328 324 323 322 324 322 320 318 315 313 311 315 318 323 328 327 325 322 326 329 334 334 336 334 334 332 330 327 328 327
311 314 316 314 317 317 317 318 318 318 319 325 323 329 321 320 319 323 321 319 317 314 313 310 307 312 314 322 329 331 331 329 330 331 334 335 335 332 333 332 329 327 327 326
313 315 316 316 315 314 316 318 318 321 318 320 323 323 318 321 321 320 317 314 312 310 309 308 304 307 313 319 325 329 329 332 332 333 333 333 332 331 332 330 328 327 326 322
313 314 317 317 315 315 316 316 317 318 319 321 323 323 319 317 314 312 311 309 308 306 304 304 303 302 307 312 319 324 326 328 329 329 330 331 330 330 331 329 327 326 322 322
314 314 315 319 317 317 317 318 317 316 319 318 319 321 316 312 309 307 305 304 303 302 301 300 299 299 303 307 308 316 322 325 324 325 326 327 329 330 329 327 326 324 323 322
311 317 314 315 317 315 316 316 316 316 314 315 318 317 312 308 305 302 301 300 300 299 298 297 298 298 299 304 304 307 313 320 323 324 325 326 327 329 328 326 326 323 321 321
310 312 312 313 316 315 315 310 310 315 317 317 319 316 308 303 301 300 299 298 297 296 296 296 298 299 298 302 304 301 304 311 318 322 324 325 327 326 326 325 324 322 321 320
310 311 311 309 309 310 311 311 314 312 312 312 315 312 306 301 299 296 296 295 295 295 295 296 297 298 298 298 304 300 301 304 310 315 319 322 323 324 324 323 322 321 321 320
309 308 310 308 308 315 312 313 311 310 309 310 309 308 303 299 296 295 294 293 293 293 294 295 297 298 299 300 301 303 303 303 304 306 309 313 317 320 321 321 321 320 320 320
309 310 311 311 310 312 312 310 309 312 308 306 307 306 305 299 301 296 293 292 293 293 294 294 295 297 298 299 300 302 303 304 303 302 303 305 305 308 312 314 318 319 319 319
309 311 313 312 310 314 307 304 306 309 308 303 304 304 304 304 307 298 293 292 293 294 294 294 293 294 298 297 300 302 301 303 302 300 301 302 303 303 303 304 301 307 313 314
311 312 313 312 313 309 302 304 306 311 305 301 301 301 299 298 295 293 292 292 292 293 293 294 292 291 291 295 298 299 299 299 297 300 299 301 300 302 303 302 300 299 304 303
308 311 310 311 311 309 299 303 304 300 299 299 299 299 298 296 294 293 292 292 291 291 292 293 292 290 290 293 295 295 294 294 295 298 300 300 299 300 301 301 300 298 299 302
308 307 306 304 303 300 298 298 298 298 298 297 298 298 298 296 295 293 292 292 291 290 290 291 290 290 288 289 291 292 291 292 294 296 296 297 298 299 300 300 299 300 301 299
307 305 306 304 301 299 298 297 296 296 296 296 295 295 296 295 294 293 292 291 290 290 289 289 289 288 287 286 286 288 290 290 291 292 293 294 294 296 297 298 298 298 296 295
304 304 303 301 300 298 296 296 295 295 295 295 295 293 293 293 293 292 290 289 289 288 288 287 287 286 285 284 284 285 287 289 289 290 289 289 291 291 292 294 293 293 292 291
302 301 303 301 299 298 296 294 294 294 293 292 292 292 291 291 290 290 288 287 287 286 286 285 285 284 283 283 285 284 285 286 287 287 287 287 287 287 288 288 288 288 289 290

GFSCGP_850_thetae_111.txt.gz
Theta_e
306 309 308 306 303 305 308 312 314 314 316 317 317 318 318 317 318 317 318 319 318 319 321 320 320 320 321 320 319 319 331 336 339 340 340 337 337 337 337 334 333 329 325 321
302 307 310 308 305 305 306 307 308 310 314 317 319 320 319 318 317 318 317 320 320 320 321 321 321 321 321 321 320 321 327 333 339 338 336 334 333 338 337 336 333 330 327 321
304 303 310 310 307 305 305 306 308 310 311 317 318 321 320 321 319 319 319 320 320 321 320 320 321 321 321 321 320 319 325 330 338 337 338 338 338 338 337 336 334 331 328 323
305 304 306 309 309 306 304 306 308 310 312 321 318 318 314 319 319 317 318 318 318 321 321 322 322 323 323 322 322 326 324 333 337 336 336 336 334 332 337 337 335 333 329 325
310 305 305 308 310 307 305 306 308 313 317 317 318 314 312 313 316 316 316 322 324 325 325 325 326 327 327 325 325 324 333 335 337 336 332 332 336 334 333 338 336 334 328 327
308 306 305 308 311 310 307 309 315 314 315 316 314 312 312 313 315 323 323 324 324 323 323 323 324 326 326 327 329 327 324 328 331 333 333 325 331 332 332 337 336 334 329 328
307 306 305 310 310 311 309 313 314 315 314 314 314 313 313 318 323 324 324 322 320 320 320 318 318 319 321 322 326 328 328 325 329 330 332 325 331 332 330 335 336 332 330 328
305 304 308 311 311 312 310 311 313 317 318 315 313 315 313 316 323 323 321 319 316 315 316 315 315 317 318 321 323 326 328 328 324 330 332 329 331 334 332 334 335 332 329 328
309 306 312 313 313 311 310 311 313 318 318 320 314 322 321 322 324 322 319 315 314 312 310 311 311 312 316 319 322 327 328 329 328 324 329 332 333 334 333 335 334 333 330 329
311 310 313 313 315 315 310 311 315 318 321 324 320 324 325 318 322 318 314 311 310 308 307 306 305 307 312 316 319 326 329 328 328 325 327 330 331 333 332 334 333 333 332 329
312 309 315 316 316 314 315 316 317 319 320 322 325 325 317 313 316 313 311 307 305 304 303 303 303 305 307 312 317 324 329 331 329 325 329 331 330 332 332 333 333 332 332 328
311 310 317 316 315 315 315 317 316 319 320 319 322 317 313 310 309 308 307 305 303 302 302 301 301 301 304 307 313 319 325 328 330 332 332 330 330 330 331 331 333 332 329 328
312 314 316 315 315 315 316 315 316 318 317 321 321 317 309 307 305 303 303 302 301 300 300 300 301 299 300 303 307 314 321 325 327 328 329 330 329 330 330 331 332 330 328 327
313 314 316 317 317 316 317 317 316 317 318 319 317 313 309 305 304 302 301 300 299 298 297 298 300 300 299 299 304 308 312 319 324 324 325 329 330 330 329 330 331 329 327 327
311 314 312 313 314 314 313 314 314 315 316 317 313 310 307 303 302 300 299 298 297 296 296 296 297 298 300 300 301 304 307 311 317 322 324 325 325 329 329 330 329 328 326 324
310 313 310 312 312 314 314 312 312 313 315 315 312 308 304 300 297 297 296 296 295 294 294 296 297 298 299 300 300 300 304 306 309 314 320 323 325 327 328 327 326 326 324 322
309 310 311 311 311 313 314 311 310 309 309 310 310 309 303 299 296 295 294 294 294 294 294 294 295 296 297 299 299 300 302 304 304 306 308 315 320 324 325 325 325 323 322 322
309 310 310 309 309 316 309 307 306 306 306 306 306 304 299 297 294 293 292 293 293 294 294 293 294 295 297 297 299 300 302 303 304 303 304 307 310 312 315 321 322 322 321 321
310 310 311 310 313 313 308 304 304 308 305 303 303 302 300 297 299 294 292 292 293 294 294 293 293 293 295 297 297 299 300 300 303 302 301 303 305 305 306 307 310 314 320 319
310 309 312 310 312 312 304 301 302 305 303 301 301 299 298 300 300 294 292 292 293 293 293 292 292 293 294 293 294 296 297 299 300 300 300 302 304 303 302 302 303 302 300 306
307 307 308 310 310 306 299 300 302 307 302 300 299 298 296 295 293 292 292 291 291 291 292 291 290 290 290 292 293 292 293 294 295 298 300 301 301 301 300 300 302 301 301 303
306 308 305 306 307 304 298 300 302 301 298 298 298 298 296 294 293 292 291 291 290 290 290 289 288 288 289 290 291 291 290 290 293 295 297 299 300 300 300 300 299 300 300 300
305 306 303 302 301 298 298 297 297 296 296 296 296 296 295 295 293 292 290 290 289 289 289 288 287 287 287 288 289 290 289 289 290 293 294 295 296 297 297 298 300 300 299 299
305 305 302 302 300 298 297 296 295 296 296 295 294 294 294 293 292 290 289 288 288 287 287 287 286 285 285 285 286 288 289 289 289 288 290 291 293 293 294 295 295 296 296 295
303 302 302 300 298 297 296 295 295 294 293 293 292 291 291 291 289 288 287 286 286 285 285 285 284 283 284 283 284 285 287 288 288 288 287 287 288 288 290 291 291 291 291 291
299 299 301 299 299 297 295 294 294 292 291 291 290 289 289 289 287 287 285 285 284 283 283 283 283 283 283 283 284 284 284 285 286 287 286 286 286 286 286 286 287 287 287 287

GFSCGP_850_thetae_114.txt.gz
Theta_e
302 301 302 307 303 303 303 303 304 307 310 311 313 313 315 314 316 317 317 319 320 320 320 320 320 320 320 320 320 320 320 323 335 340 339 340 338 336 337 336 332 331 329 325
304 302 302 302 307 307 304 303 303 305 307 309 311 317 316 317 317 316 317 317 318 319 320 320 320 320 320 320 320 320 320 320 327 338 339 339 339 337 336 336 334 333 332 327
306 307 304 303 303 308 307 305 303 303 304 306 311 316 317 318 318 319 318 318 318 318 319 318 319 319 320 320 320 319 321 320 323 333 340 337 337 336 336 337 336 334 334 331
307 308 308 306 304 305 311 307 305 304 305 306 316 319 316 314 314 318 317 316 317 319 322 324 324 324 324 325 325 324 329 335 332 334 340 338 337 333 329 330 333 333 334 332
306 308 308 308 304 305 309 309 306 304 304 313 314 319 315 310 312 316 319 321 319 318 319 319 321 323 323 324 326 327 336 339 339 339 339 337 339 334 331 330 330 333 335 334
307 307 307 307 306 306 309 310 311 312 314 315 315 317 311 314 318 322 321 317 314 312 313 314 315 318 320 321 323 326 326 331 338 338 335 335 336 335 334 333 333 333 335 335
307 307 305 306 304 307 310 311 308 312 314 314 313 317 315 321 321 319 315 312 310 308 309 313 316 317 318 319 321 322 324 326 329 336 334 333 332 332 331 333 333 333 335 335
307 306 304 307 305 307 310 309 309 312 315 315 314 314 314 321 316 313 311 308 307 305 305 307 310 313 316 318 320 321 322 325 328 327 332 333 333 332 332 331 331 331 334 334
307 306 308 310 312 312 311 311 310 314 316 315 312 319 318 314 313 310 308 305 303 302 302 304 307 309 313 316 318 320 323 327 328 328 327 329 331 334 333 330 330 330 332 334
311 309 309 310 312 313 313 311 312 312 314 314 318 319 317 314 310 308 307 305 303 301 300 301 303 307 310 313 316 319 320 325 328 329 328 326 325 332 332 332 331 328 329 333
312 311 309 310 314 313 312 314 314 313 315 316 323 314 308 306 306 304 304 302 301 300 300 300 300 302 304 307 311 316 319 323 327 329 328 327 325 330 332 331 331 330 329 332
311 310 311 316 314 315 313 315 315 310 317 319 318 311 304 302 303 302 301 301 299 299 299 301 301 300 300 302 307 310 314 320 323 326 330 330 327 330 330 330 330 330 331 332
312 314 315 316 313 315 315 315 315 316 314 320 318 313 304 304 302 300 300 299 298 297 297 300 301 301 301 300 302 305 309 313 320 324 327 330 333 333 333 330 329 330 331 332
312 311 312 313 314 313 317 315 315 316 317 313 312 309 305 302 301 299 298 297 297 296 295 296 299 299 301 301 301 301 304 308 314 320 323 326 329 329 330 329 328 328 329 331
309 311 311 313 313 313 311 316 315 316 313 312 309 305 302 299 298 297 296 296 295 294 294 295 296 297 299 301 301 302 303 304 308 313 317 322 324 328 328 328 327 328 329 329
309 311 310 311 311 311 310 309 310 312 311 308 305 303 299 297 295 295 295 295 295 294 293 293 295 297 297 298 299 301 301 303 304 307 309 313 318 323 326 327 326 328 328 327
307 309 311 312 311 311 308 307 307 307 306 308 309 304 298 295 294 293 293 293 294 294 292 293 293 295 296 297 298 299 300 302 302 303 305 306 310 312 321 322 324 324 323 322
309 309 309 311 310 308 306 305 304 303 305 303 303 300 296 294 293 292 293 293 293 293 291 291 292 294 295 296 297 298 299 300 301 301 302 304 304 305 308 308 318 319 322 322
309 310 309 312 311 308 304 302 301 304 303 303 301 301 297 295 297 292 291 292 292 292 291 290 291 292 294 295 295 296 298 298 299 299 299 300 303 302 303 305 306 304 306 312
307 307 310 311 309 307 302 299 300 302 302 300 299 297 296 299 296 293 291 291 291 291 290 290 290 292 294 293 293 294 295 296 296 296 297 299 299 301 300 300 301 302 304 302
306 306 306 309 307 304 298 299 302 305 301 298 298 296 294 293 292 291 290 289 290 289 288 289 289 289 290 291 292 292 291 290 292 295 297 298 298 299 298 300 301 302 301 301
306 306 303 305 303 303 297 298 302 299 297 297 297 296 294 293 292 290 289 288 288 288 288 287 287 287 288 289 290 290 290 289 290 292 294 296 297 297 296 298 300 300 300 301
304 302 302 302 300 297 296 297 296 296 295 294 294 295 294 292 290 289 288 288 287 287 286 286 286 287 286 286 288 289 288 289 289 289 291 292 293 294 295 297 297 297 298 299
304 302 299 299 299 297 296 295 294 294 293 293 293 293 292 290 289 287 287 286 286 285 285 285 286 286 286 286 286 287 288 288 288 288 288 289 290 291 292 292 293 293 294 295
300 300 300 299 297 296 295 295 293 292 291 291 291 290 289 289 287 287 285 284 284 284 283 284 284 284 284 285 285 286 286 286 287 286 287 287 287 288 289 289 289 289 287 288
298 298 301 299 298 296 295 294 291 291 290 289 289 288 287 288 287 286 285 284 283 283 283 283 283 283 284 284 284 284 285 285 285 285 285 285 285 286 286 286 287 287 286 286

GFSCGP_850_thetae_120.txt.gz
Theta_e
301 300 298 298 299 301 301 302 302 302 303 304 304 303 302 304 304 303 307 309 310 313 314 316 316 317 316 316 328 334 336 336 336 338 338 338 337 336 333 328 326 326 324 327
303 301 301 301 300 300 300 300 300 301 303 304 304 306 303 303 303 303 306 306 310 312 314 315 315 316 318 317 316 320 331 333 330 331 329 334 336 337 337 334 332 330 329 330
302 301 303 303 303 303 303 302 302 301 301 302 305 307 304 304 303 303 304 309 313 314 316 317 318 318 317 317 317 316 317 317 320 325 329 337 339 339 339 338 336 335 333 332
302 303 304 305 306 305 304 303 303 303 303 306 306 309 306 304 305 311 308 306 304 306 309 312 313 316 321 321 321 320 318 317 317 323 327 332 334 335 333 336 338 337 336 333
303 304 304 304 304 305 305 305 305 305 305 307 307 306 303 305 315 310 306 305 303 302 303 306 309 309 318 322 325 326 324 321 321 330 336 329 332 333 332 334 334 336 334 335
303 303 303 303 304 304 304 305 306 306 307 309 307 305 305 312 313 309 306 303 302 301 301 302 306 309 313 317 320 327 330 332 333 333 334 337 337 336 335 335 334 336 335 333
303 305 304 304 305 305 305 305 304 305 305 310 308 304 307 307 307 307 305 303 301 300 300 300 302 303 309 312 317 322 323 328 332 332 333 335 337 339 334 335 335 335 335 333
305 307 304 304 305 305 304 305 306 309 311 313 312 311 310 305 302 300 301 301 300 299 299 298 299 300 302 307 313 317 319 321 324 328 331 333 334 336 338 333 335 335 334 332
309 307 306 307 307 305 305 306 305 308 309 311 314 310 307 304 302 300 299 299 299 298 298 297 298 299 300 304 309 313 317 320 321 322 324 326 330 333 336 336 336 333 332 330
310 310 309 309 308 307 307 310 311 308 312 313 315 310 306 303 302 300 299 298 297 297 296 297 297 298 299 301 304 310 315 317 319 322 322 324 325 326 329 334 334 333 333 330
310 312 309 309 309 308 311 310 311 312 312 314 314 309 304 302 301 299 298 297 296 295 295 295 297 297 299 300 302 306 311 315 317 320 321 323 325 326 326 327 328 332 333 331
309 312 311 310 310 310 313 310 310 308 309 313 307 305 303 300 299 298 297 296 295 295 295 294 296 298 299 300 302 304 307 311 313 316 318 322 323 323 327 330 330 331 332 331
309 312 313 309 311 312 313 313 313 311 311 313 310 305 301 299 298 297 297 295 294 293 293 294 293 295 296 299 301 302 303 305 309 312 315 317 321 323 324 326 326 328 331 330
310 310 307 307 308 310 310 313 313 312 308 307 305 301 299 298 297 296 296 294 293 292 292 293 294 294 297 297 300 301 302 302 304 306 309 314 315 317 321 323 325 326 327 328
308 310 309 307 305 306 306 309 311 309 308 306 302 299 297 296 296 295 295 292 291 290 290 290 291 293 294 296 297 298 299 301 302 302 304 305 308 311 314 317 322 324 325 326
307 310 310 308 310 304 303 303 306 306 304 302 300 298 296 294 293 293 293 292 290 288 288 289 291 292 293 294 293 297 298 299 300 301 301 301 303 305 308 310 314 317 320 324
306 308 309 308 308 306 303 303 302 302 301 303 301 298 295 293 292 291 291 291 289 287 287 288 289 290 291 292 292 293 296 298 299 299 300 301 301 301 302 305 308 311 312 314
306 309 308 310 309 306 303 302 302 300 300 299 297 295 294 292 291 290 289 289 287 286 286 287 288 290 290 290 292 292 293 296 297 298 299 299 299 300 301 301 302 304 305 307
305 307 311 308 306 305 303 300 301 302 300 298 299 296 294 293 293 288 288 287 286 286 285 286 287 288 289 290 290 292 293 293 294 295 296 298 299 299 299 300 300 300 301 303
304 304 310 307 308 306 300 298 298 300 301 296 295 293 293 296 293 289 287 287 286 286 285 286 287 288 288 288 289 290 289 289 290 290 292 294 296 298 298 298 298 299 299 299
304 304 305 306 305 302 297 298 300 304 299 296 293 291 291 291 289 287 287 286 285 286 286 286 286 287 287 288 289 289 289 288 288 288 289 291 293 294 295 296 297 298 299 299
301 303 303 304 303 303 296 299 301 298 296 295 293 292 289 288 287 287 286 285 285 285 285 285 286 286 286 287 287 287 287 286 287 288 289 289 290 291 292 294 294 294 296 296
302 299 300 299 298 295 294 295 295 295 294 294 293 290 289 288 286 285 285 284 284 284 284 285 285 285 286 286 286 286 286 286 286 287 287 288 288 289 290 291 291 293 292 292
301 299 299 298 296 295 293 294 292 293 294 294 293 291 289 288 286 286 285 284 284 284 284 284 285 285 284 284 284 284 285 286 286 286 286 286 287 287 287 288 287 288 288 288
298 298 296 297 297 295 292 292 291 291 291 291 290 289 288 287 286 285 284 283 283 283 283 283 283 283 283 283 283 284 284 284 284 284 284 284 284 284 284 285 285 284 284 284
297 298 298 292 296 294 293 291 291 291 290 289 289 287 286 285 285 283 283 282 282 281 281 281 281 282 282 282 282 282 283 283 283 283 283 282 283 283 283 283 283 283 283 283

GFSCGP_850_thetae_123.txt.gz
Theta_e
301 302 302 302 303 303 303 303 303 303 303 303 303 304 304 304 305 305 306 306 305 305 307 310 310 314 314 315 315 324 333 338 337 334 332 330 330 329 326 325 323 323 323 323
303 303 303 301 302 301 303 303 304 304 304 304 304 304 304 305 305 307 306 305 305 304 306 312 313 314 314 314 314 321 330 337 338 337 336 336 335 335 335 332 330 327 324 323
303 303 303 303 303 303 303 304 305 304 304 305 305 305 306 308 307 309 307 306 305 306 307 311 314 314 316 315 315 314 320 331 336 337 338 337 338 338 337 337 335 334 329 327
304 303 304 304 303 304 305 305 304 304 305 306 305 306 307 309 311 309 306 304 304 303 303 304 308 311 315 318 318 317 315 318 326 334 333 335 332 332 332 331 336 337 335 332
306 304 305 306 305 306 306 305 305 306 306 307 305 307 307 309 307 308 305 303 302 301 301 301 302 306 309 316 320 322 321 318 316 316 335 340 339 334 332 328 330 333 335 335
304 303 304 304 304 304 305 305 307 307 307 308 309 309 309 306 305 305 302 301 301 300 300 300 301 305 309 311 317 321 324 323 321 320 323 336 336 337 336 333 333 333 334 335
305 305 304 303 305 305 305 306 307 308 311 309 309 309 309 305 303 302 301 298 299 299 299 298 300 302 307 310 313 318 323 325 327 328 331 332 336 337 338 336 336 337 335 334
308 309 305 305 306 305 307 307 305 305 307 306 307 314 308 304 300 299 298 297 296 298 297 297 297 298 302 308 312 315 319 321 325 329 331 332 333 334 333 335 335 335 333 331
310 309 306 305 306 307 306 307 306 306 306 308 312 309 307 302 300 299 298 297 296 295 295 296 296 296 299 304 308 312 314 315 319 323 325 329 330 331 333 331 332 333 334 333
308 312 309 309 308 308 309 308 311 309 311 315 314 309 305 301 300 299 298 296 295 294 294 294 295 295 296 299 304 309 312 313 316 320 321 321 324 327 328 329 330 331 332 333
307 310 310 309 310 311 311 311 310 311 312 314 314 308 302 300 299 298 297 295 294 293 293 292 293 294 295 296 300 304 308 313 315 317 318 318 321 322 323 324 325 326 328 331
308 310 311 311 310 310 312 312 312 313 312 313 311 305 301 299 298 297 295 294 293 292 292 292 292 293 295 296 298 301 306 310 310 313 315 318 319 321 322 323 324 327 328 327
308 310 309 307 309 308 312 313 314 312 312 311 313 305 299 298 297 296 293 292 291 291 291 291 292 292 292 292 295 297 301 302 303 306 309 312 314 316 317 321 323 324 326 327
309 308 306 307 307 306 308 310 312 313 312 307 304 300 298 297 296 295 293 291 290 289 289 289 290 291 291 291 296 298 299 300 302 303 305 306 307 309 312 314 318 321 324 326
309 312 310 307 305 304 303 306 307 306 307 307 301 298 296 295 294 293 292 290 289 289 288 288 290 290 291 290 290 296 299 300 300 301 302 302 303 305 307 310 313 315 318 320
308 310 310 308 308 305 303 303 304 304 302 301 299 297 295 293 292 292 290 289 288 288 287 286 289 289 289 289 288 293 296 298 299 300 300 300 301 302 303 304 306 308 312 314
306 309 310 310 308 307 304 302 302 301 300 303 301 297 294 292 291 290 289 288 287 286 285 285 286 287 288 288 288 288 292 294 298 298 299 300 300 301 301 301 303 304 304 306
306 307 309 310 310 308 303 302 301 300 300 298 297 296 293 290 288 287 286 286 285 285 284 285 287 288 288 289 290 290 291 292 294 296 297 298 299 300 300 299 300 301 302 302
304 306 310 310 307 305 304 300 301 302 299 297 298 295 294 291 292 288 285 284 284 284 285 285 286 287 288 289 289 290 290 290 291 292 293 295 297 298 298 299 298 299 299 299
304 304 310 308 308 308 301 298 298 300 301 295 294 295 294 296 297 290 284 285 285 285 285 286 286 287 288 288 288 289 288 289 289 289 291 292 293 295 295 296 296 296 297 297
303 304 305 307 306 302 297 297 299 304 301 294 292 291 292 291 289 285 285 285 284 285 285 285 285 285 286 287 288 288 288 287 287 288 289 291 291 292 292 293 294 294 294 295
302 304 303 305 305 305 295 299 302 298 296 294 292 290 289 287 286 285 285 284 284 285 285 285 285 285 285 285 286 286 286 284 286 287 287 289 289 289 289 290 291 291 291 292
302 300 302 300 300 295 294 294 295 295 295 293 291 289 288 287 285 284 283 283 284 284 284 284 284 284 284 285 285 285 284 285 285 286 286 286 286 287 287 288 288 288 288 288
301 299 299 298 296 294 293 292 293 294 293 292 290 289 287 286 285 284 284 283 283 283 283 283 283 283 283 283 283 283 283 283 283 284 284 284 284 285 285 286 285 285 285 285
299 299 298 298 296 293 292 291 291 291 292 290 288 287 286 286 284 284 283 282 281 281 282 281 281 281 281 282 282 282 282 282 281 281 282 283 283 283 283 283 283 283 283 283
298 298 298 298 296 295 293 291 291 291 290 289 289 287 286 285 284 283 282 281 281 281 281 281 280 280 280 280 280 280 280 280 280 280 280 280 281 281 282 282 282 282 282 282

GFSCGP_850_thetae_126.txt.gz
Theta_e
305 307 308 308 307 306 306 306 306 307 308 307 307 307 308 308 307 308 309 309 309 309 308 307 307 309 316 316 318 316 323 336 338 338 336 335 335 328 326 324 323 323 323 324
308 309 307 305 305 305 305 306 307 307 307 307 307 308 309 309 310 312 311 310 310 309 309 309 312 313 314 315 314 316 324 330 338 339 337 333 333 334 333 333 328 323 323 323
308 308 305 306 307 307 307 307 307 307 307 307 308 308 308 310 311 308 307 306 307 305 305 307 308 310 311 312 313 315 322 334 338 340 339 337 336 337 336 335 333 331 328 327
309 307 307 307 307 307 307 308 307 307 308 308 308 309 309 311 310 307 304 303 303 302 302 303 305 307 307 307 311 313 319 327 338 339 340 340 339 339 339 338 338 337 334 332
310 308 308 308 308 307 308 307 307 307 309 309 308 309 310 309 307 305 303 301 300 299 300 300 301 302 303 307 311 313 317 320 329 337 339 339 339 341 341 338 336 335 335 336
309 307 307 308 307 307 307 308 308 309 309 310 309 311 312 307 305 303 300 299 299 297 298 298 299 299 302 305 308 311 315 317 321 333 336 330 335 339 338 338 339 341 336 333
310 309 307 306 309 308 308 309 310 310 313 311 309 310 307 304 303 302 300 298 296 296 295 296 297 298 299 301 304 306 313 319 321 326 332 337 335 335 335 336 335 336 337 337
312 313 309 308 309 310 310 310 309 309 309 311 310 314 308 304 301 300 298 296 295 295 293 293 295 296 297 297 300 304 311 315 321 324 326 329 331 331 333 333 335 336 335 336
312 312 309 308 309 309 312 310 309 310 311 313 314 311 307 303 301 299 297 296 295 293 293 292 293 293 294 295 296 299 305 310 318 319 323 327 328 328 330 331 331 331 332 334
310 312 311 311 310 310 310 311 313 313 314 314 316 311 308 303 301 300 297 295 294 292 292 291 291 292 292 294 295 298 302 308 314 314 318 322 324 325 326 326 326 328 328 330
310 311 312 311 312 312 314 313 311 312 313 315 315 312 303 301 300 298 296 294 292 292 291 290 290 291 292 292 295 297 299 302 306 310 315 315 319 320 321 322 322 322 323 324
309 312 313 312 311 312 312 313 312 314 315 314 317 310 301 300 298 297 295 293 292 291 290 290 291 290 291 293 294 297 299 302 303 305 310 313 318 319 320 322 322 323 324 326
311 312 313 311 312 309 309 312 314 315 315 317 317 309 300 298 297 296 294 292 291 290 290 290 291 290 291 291 294 295 296 296 300 306 310 311 314 314 316 317 318 320 322 324
309 310 310 311 308 306 307 308 311 313 319 314 307 303 299 298 297 295 293 291 290 290 290 289 289 289 290 290 294 294 298 300 302 304 303 302 305 307 308 309 311 314 316 318
310 311 308 308 308 306 306 306 308 309 309 311 304 301 297 296 295 293 291 290 290 290 289 289 288 287 290 290 290 292 294 297 299 298 299 299 300 302 304 306 307 308 310 311
309 311 312 312 309 307 305 305 307 305 303 302 301 299 296 294 293 292 290 289 289 288 288 287 286 286 287 287 288 289 291 294 295 297 297 297 299 300 301 302 303 304 304 306
310 309 312 315 309 309 308 304 305 303 303 304 305 299 295 294 292 290 289 289 288 287 287 285 284 284 284 285 286 286 288 288 293 296 297 298 297 298 299 300 301 301 301 302
308 308 309 313 312 313 305 303 302 302 301 300 299 297 296 293 290 289 287 287 287 286 285 284 285 286 284 284 285 285 286 287 291 293 294 295 295 296 297 298 299 299 299 300
307 308 312 313 312 307 305 303 304 305 301 299 300 297 295 292 293 290 286 285 285 285 285 284 284 284 283 284 285 285 286 287 289 290 291 293 293 294 295 296 296 296 297 298
306 307 310 310 312 311 305 301 300 302 305 297 298 298 298 296 300 293 285 284 283 285 285 285 284 284 284 284 284 285 286 286 287 287 289 289 290 291 291 292 292 293 294 294
307 307 310 310 310 305 300 299 300 307 304 296 295 297 297 296 291 286 284 283 283 284 284 284 284 283 283 284 284 284 284 285 285 286 287 288 289 289 289 290 290 291 291 292
306 308 309 308 309 309 298 300 304 300 297 296 295 294 292 290 288 286 284 284 284 284 284 284 284 283 283 282 283 283 283 285 285 285 284 285 286 286 287 287 288 289 289 289
306 305 306 304 304 298 297 298 299 298 297 295 294 292 291 289 287 286 285 284 283 283 283 283 283 283 282 282 282 282 282 283 284 284 284 284 285 284 284 286 286 285 285 284
302 301 303 301 297 297 296 295 296 296 295 293 292 291 290 289 287 286 285 284 283 282 282 282 282 281 281 281 281 281 281 282 283 283 283 283 283 283 283 283 282 283 284 283
304 302 301 299 297 296 295 295 294 293 292 291 290 289 289 288 286 285 284 282 282 281 280 280 280 280 280 280 280 280 280 281 281 282 282 282 282 282 282 282 281 280 281 281
302 303 304 305 298 299 296 294 292 291 290 289 288 287 287 286 285 284 282 281 281 280 280 279 278 278 278 279 279 279 279 279 280 280 280 280 281 280 280 281 281 280 280 280

GFSCGP_850_thetae_129.txt.gz
Theta_e
310 310 311 312 311 310 309 309 309 310 311 310 310 310 311 310 311 314 313 312 311 310 310 309 310 311 312 314 316 317 319 319 319 338 337 340 338 338 337 334 336 338 338 323
310 312 311 309 309 309 309 310 311 311 311 310 310 310 311 311 313 311 309 308 307 306 305 305 306 308 310 312 313 315 316 316 319 334 337 338 338 337 334 333 333 325 330 326
312 312 309 309 310 310 311 311 311 310 310 310 310 310 310 311 312 309 307 305 304 303 302 302 302 303 305 307 309 310 313 317 317 327 337 337 339 337 336 335 335 334 328 329
311 311 310 310 310 310 311 311 309 309 310 310 310 310 312 313 312 308 305 303 301 300 299 299 299 300 300 302 303 308 308 313 321 326 334 337 337 337 336 336 335 336 336 338
314 311 311 311 311 309 311 310 310 310 311 312 311 310 314 311 309 306 303 301 299 298 298 297 296 297 298 300 301 305 307 311 318 325 332 336 337 338 336 336 337 338 338 339
312 311 310 311 310 310 310 311 312 312 313 313 312 312 314 309 305 304 301 300 298 297 297 296 294 295 296 298 299 303 306 312 316 324 331 335 337 336 337 336 337 341 340 338
313 312 310 309 311 312 311 314 316 314 315 314 311 311 311 306 304 302 300 298 297 296 295 295 293 293 294 296 298 300 303 306 312 318 325 329 333 336 334 331 321 337 336 336
314 315 311 311 311 313 313 313 315 312 312 313 313 315 313 306 303 301 299 298 296 294 294 293 292 291 292 294 296 298 300 301 307 316 322 321 326 326 327 321 320 334 335 335
314 313 312 311 311 312 314 314 313 312 313 314 316 311 309 306 303 300 297 296 295 293 292 291 291 291 291 292 294 297 297 299 303 313 320 322 321 325 326 325 329 332 332 333
313 316 312 312 312 312 312 313 315 313 315 316 315 316 315 305 302 299 298 295 294 293 292 291 290 290 290 291 292 295 296 297 299 310 318 322 322 320 322 325 325 326 328 329
312 313 314 313 314 314 315 315 314 314 314 317 317 316 304 301 300 299 297 294 293 292 292 291 290 289 290 291 291 293 294 296 298 306 310 314 314 316 315 318 318 319 321 323
311 314 315 315 313 313 313 314 315 316 315 317 319 314 302 301 299 297 295 294 293 292 291 290 290 289 289 290 292 292 293 295 296 301 307 309 310 309 311 314 318 317 318 320
312 314 317 315 315 312 311 311 312 313 318 319 320 312 301 299 298 296 295 293 292 291 290 290 289 289 289 289 290 292 294 294 294 296 297 299 302 307 309 312 314 317 316 318
310 312 314 316 313 309 309 308 309 312 316 319 312 305 301 299 298 296 294 293 292 291 290 289 288 288 288 289 289 290 291 293 295 296 297 300 301 304 307 307 309 311 311 313
312 313 312 310 309 308 307 307 308 312 312 314 306 303 299 298 296 294 293 292 292 291 290 289 288 287 288 289 289 290 291 293 294 298 297 299 300 301 305 304 304 306 307 306
311 313 311 312 310 308 306 307 308 307 306 305 303 301 298 296 295 294 292 291 291 290 289 288 286 286 287 287 288 290 290 294 294 297 294 296 299 299 301 297 299 300 300 301
311 313 312 316 311 311 311 305 306 305 306 306 308 302 298 297 295 292 291 291 290 289 288 287 286 285 286 287 287 288 288 290 291 290 292 292 293 293 294 295 297 297 296 297
311 311 311 315 312 314 306 304 304 304 303 303 300 299 298 295 292 291 289 289 288 288 288 288 286 285 286 287 287 287 288 288 290 290 291 291 290 291 292 294 295 295 295 295
310 310 312 314 314 308 306 305 305 306 303 302 302 299 297 294 294 292 289 287 287 288 288 288 287 286 286 287 288 287 286 287 287 288 288 289 290 290 291 291 291 291 292 293
309 309 312 313 313 314 310 306 304 304 307 301 301 300 298 297 300 295 288 286 286 288 288 287 287 286 286 286 286 287 287 286 286 286 286 287 288 288 288 289 290 290 289 290
310 310 311 312 312 309 305 304 303 308 307 300 301 300 299 299 294 288 286 286 285 287 287 287 286 286 285 285 286 286 286 286 286 286 286 285 285 285 285 286 287 287 287 287
309 310 310 310 311 312 302 303 306 303 300 299 298 298 295 292 290 288 286 287 287 287 287 286 286 285 285 284 285 285 285 286 286 285 286 285 285 285 284 284 284 284 284 285
309 308 310 307 306 299 301 303 301 301 299 298 297 295 294 292 290 289 288 287 287 286 286 285 285 284 284 283 283 284 284 285 285 285 285 285 284 285 285 284 283 283 283 282
306 304 306 304 300 299 299 299 300 299 298 297 295 294 293 292 290 289 288 287 286 285 284 284 284 283 283 282 282 282 283 283 284 284 284 284 284 284 284 283 283 281 280 280
307 305 303 301 299 298 298 298 298 297 295 294 293 293 292 291 290 288 287 286 285 284 283 283 282 282 282 281 281 281 281 281 282 282 283 282 283 283 283 283 282 281 279 279
305 306 305 308 300 302 299 297 296 295 293 293 292 291 290 290 288 287 285 285 284 283 282 281 281 281 280 280 279 279 280 280 281 281 281 281 282 282 282 282 282 282 280 279

GFSCGP_850_thetae_135.txt.gz
Theta_e
309 306 306 306 308 310 309 308 306 306 308 310 310 309 308 308 306 305 303 303 302 301 301 301 300 300 301 300 300 300 301 304 306 308 310 311 313 318 332 336 336 336 337 341
307 308 309 310 310 310 309 308 307 308 310 309 307 307 307 307 305 304 302 301 300 299 299 298 297 297 296 295 296 298 299 300 304 305 307 309 310 312 314 326 335 334 333 339
309 310 312 311 310 310 309 309 308 310 309 308 308 307 308 307 305 303 301 299 298 297 296 295 295 295 293 293 292 294 296 299 302 305 306 308 308 308 308 311 328 334 335 340
309 310 311 311 311 310 308 311 311 311 309 308 308 306 310 308 305 303 301 299 297 296 295 294 294 292 291 291 291 293 296 297 299 305 306 306 306 307 306 307 311 333 335 337
310 311 310 311 311 310 310 311 311 310 309 309 309 308 310 308 306 303 300 299 297 295 294 293 292 291 291 291 292 294 295 297 299 303 306 306 307 308 309 307 308 314 335 336
308 310 310 311 311 311 311 311 311 310 310 311 312 311 309 305 304 302 300 298 296 294 293 292 292 291 290 290 292 294 295 297 299 301 303 306 308 309 312 312 312 310 328 335
311 311 310 311 310 310 310 311 312 313 312 314 313 312 308 304 302 300 298 297 295 293 292 291 291 290 290 290 292 293 295 297 298 300 303 305 308 310 314 320 328 315 328 332
312 310 310 310 310 311 310 311 312 316 314 314 313 315 309 302 300 299 297 295 294 293 292 291 290 290 290 290 291 293 294 296 297 299 301 304 308 312 313 322 326 323 322 326
315 316 313 310 310 311 312 313 313 315 313 312 311 309 306 303 301 298 296 295 294 292 291 290 290 290 290 290 290 292 294 295 296 297 299 300 302 308 307 319 320 324 324 320
314 314 315 311 311 311 311 313 314 313 314 315 312 311 307 303 301 298 296 294 293 292 291 291 290 290 290 290 291 293 295 294 295 296 297 298 298 302 302 316 322 322 321 322
312 312 313 314 312 311 312 312 312 313 313 312 306 309 304 299 300 297 296 294 293 292 290 290 290 290 289 290 291 292 295 294 292 294 295 295 296 297 298 315 318 320 320 322
312 312 313 314 314 313 313 315 314 312 315 315 311 307 301 299 298 297 295 294 293 292 290 290 290 290 290 290 291 291 293 295 292 292 293 293 293 293 301 306 309 312 312 317
312 312 313 313 313 315 314 314 312 315 313 312 311 304 301 300 297 296 294 293 292 291 290 290 291 290 289 290 290 292 291 293 292 292 291 291 291 292 299 302 307 310 308 312
312 313 313 315 313 312 311 309 308 309 305 305 306 303 301 300 298 295 293 293 292 290 289 289 290 290 289 289 289 290 292 292 290 291 292 292 292 291 293 297 302 307 303 308
311 313 310 313 311 309 307 308 307 308 309 311 301 301 302 299 297 295 293 292 291 290 288 288 289 289 289 288 288 289 290 293 292 294 294 293 292 291 293 293 293 295 297 299
310 311 305 304 309 309 302 301 302 306 308 307 303 301 299 296 295 294 292 291 290 290 289 287 288 288 288 287 287 286 286 287 287 289 290 291 292 293 291 293 294 294 294 294
311 311 309 310 308 310 311 301 304 307 306 307 304 300 297 297 295 293 291 291 290 289 288 287 287 287 288 287 286 287 286 286 286 285 286 286 287 288 288 289 290 290 290 290
312 311 311 310 310 312 304 305 305 306 304 301 299 297 297 295 293 291 291 290 290 289 288 287 286 287 287 287 286 286 286 285 285 285 285 285 285 286 286 286 287 287 286 286
311 312 310 310 312 307 306 306 306 304 304 300 299 298 295 293 291 290 289 289 289 289 288 287 286 286 286 286 286 286 285 286 285 285 285 285 284 284 284 285 284 284 285 285
311 310 311 309 313 312 307 305 305 305 305 301 300 297 295 293 297 293 290 289 289 289 288 287 286 285 285 285 285 285 285 285 285 285 285 284 284 284 283 283 284 283 284 284
309 309 308 307 309 309 306 305 306 306 302 301 299 297 296 296 296 293 289 288 288 288 287 287 285 284 284 284 285 285 284 284 284 284 284 284 284 284 283 283 283 283 283 283
309 307 307 307 309 310 304 304 305 302 303 303 300 299 297 296 293 290 288 288 288 287 287 286 285 284 284 284 284 284 284 284 284 284 283 283 283 283 283 283 283 283 283 283
310 308 307 305 304 302 303 304 303 302 301 300 301 300 299 295 291 289 288 288 287 287 286 285 284 283 283 283 283 284 284 283 283 283 284 283 283 283 283 283 283 283 283 282
307 306 301 301 300 301 302 302 302 300 299 298 298 297 295 293 290 289 288 287 287 286 285 285 284 283 283 282 283 283 283 283 282 283 283 282 282 282 281 281 281 281 280 280
306 304 301 300 300 300 300 301 300 298 297 296 295 294 293 291 290 289 288 287 286 285 284 284 283 283 282 282 283 283 283 283 282 282 283 282 281 281 280 280 280 279 279 279
306 303 300 297 299 299 299 300 298 297 296 295 294 293 292 290 289 288 287 286 285 284 283 282 282 282 283 281 282 283 283 282 282 281 281 280 280 279 280 280 279 279 278 278

GFSCGP_850_thetae_138.txt.gz
Theta_e
307 305 305 305 306 307 308 307 306 305 306 308 307 305 304 303 302 301 300 299 299 299 299 301 302 303 303 303 302 301 300 300 301 302 303 304 305 307 308 310 310 324 334 335
305 306 307 308 307 308 307 307 306 306 308 308 306 305 304 303 301 300 299 298 297 297 298 298 298 298 298 298 298 298 298 299 299 300 302 303 304 305 306 308 309 312 326 331
306 308 309 309 308 308 307 307 307 307 309 308 307 306 306 303 302 300 298 298 297 296 296 296 298 297 298 298 297 296 295 296 298 299 300 304 305 305 306 307 307 308 309 319
306 308 309 309 309 309 309 308 310 310 308 308 307 307 307 305 303 300 299 298 296 295 294 294 294 294 294 294 295 294 294 295 296 298 299 300 302 304 305 307 307 307 307 309
307 309 310 309 309 309 309 310 310 310 309 308 309 307 307 307 305 301 299 297 295 294 293 292 292 292 293 294 293 293 294 295 295 297 299 300 302 304 305 306 308 308 306 307
305 307 307 309 310 309 310 310 311 310 308 310 311 309 307 304 303 301 299 297 295 294 292 291 292 292 293 293 293 293 293 294 295 296 298 300 302 303 305 307 309 309 308 310
307 308 308 309 309 309 309 310 309 311 311 313 312 310 306 302 300 299 298 296 294 293 291 291 291 292 292 291 292 293 293 294 295 296 297 300 300 302 304 308 310 313 318 323
307 309 309 309 309 310 309 310 312 316 315 313 312 313 306 301 299 298 296 295 294 292 291 291 292 292 290 291 291 292 293 292 294 295 297 297 299 300 304 307 311 316 319 320
310 314 312 311 309 310 310 310 312 313 313 311 310 307 304 301 300 298 296 294 294 292 291 291 292 291 291 291 291 291 291 292 294 294 294 295 297 299 302 306 308 314 315 320
309 312 312 313 310 310 311 313 313 313 316 314 312 309 304 304 300 298 296 294 293 292 291 292 292 291 292 290 291 291 292 292 292 293 293 293 294 296 299 300 301 307 314 318
309 310 312 313 311 311 311 311 311 312 313 315 308 308 304 301 297 295 295 294 293 292 291 291 291 292 292 291 291 291 292 291 291 293 293 291 292 293 295 294 296 299 306 316
311 308 309 313 312 313 313 311 312 313 314 313 306 307 299 297 297 296 295 294 292 291 291 291 290 289 290 291 291 291 291 292 292 292 293 293 290 292 290 290 291 296 305 317
311 310 310 311 311 312 314 312 314 314 314 314 308 306 300 298 297 295 294 293 291 290 290 290 289 288 287 289 290 291 291 292 293 294 293 294 291 289 290 288 288 296 301 307
311 313 311 309 311 312 311 311 308 310 309 303 305 304 302 300 297 295 294 293 291 288 289 289 289 287 287 287 287 288 290 292 293 293 293 290 290 291 289 292 292 296 301 302
311 312 311 311 312 311 310 309 308 308 307 307 300 303 300 298 297 295 294 291 290 289 288 289 288 287 286 286 286 286 286 286 288 289 289 288 290 290 291 291 292 293 295 297
310 311 307 311 309 309 306 303 304 306 307 307 303 302 298 296 295 294 293 291 290 289 287 288 288 287 286 286 286 286 285 285 285 286 286 286 287 287 288 289 288 289 290 291
310 310 308 311 307 309 310 303 301 304 306 306 304 302 296 296 295 293 291 290 290 288 287 287 287 287 286 285 286 285 285 285 284 284 284 285 286 285 285 286 287 287 287 287
310 310 310 310 310 312 302 304 303 306 304 301 299 297 296 296 294 293 291 290 289 288 287 286 286 286 286 285 285 285 285 285 285 284 283 283 284 284 285 285 285 284 285 286
310 310 310 311 312 307 305 306 305 305 304 300 298 296 294 293 291 290 291 290 289 288 287 286 286 285 286 286 285 285 285 285 285 284 283 283 283 283 284 284 284 284 284 284
311 311 311 309 312 310 306 305 305 304 305 299 298 295 293 292 294 293 290 289 288 287 287 286 285 285 285 285 285 284 284 284 284 284 284 283 283 283 283 282 282 282 283 283
311 309 309 308 311 308 306 304 304 305 304 299 297 295 293 294 296 295 290 289 288 287 287 286 285 285 284 284 284 284 284 284 283 284 283 283 283 283 282 282 282 282 281 282
309 309 307 306 308 308 304 304 305 302 301 299 297 296 294 295 295 291 289 288 287 286 286 285 284 284 284 284 284 283 283 283 283 283 283 282 282 282 282 282 282 282 282 282
309 306 306 305 304 301 303 303 303 302 301 299 299 297 296 295 292 289 288 288 287 286 286 285 284 283 283 283 284 283 282 283 283 282 282 282 282 282 282 282 282 282 281 281
306 304 301 301 299 301 302 303 301 302 302 301 300 299 297 296 291 289 288 287 286 286 285 285 284 283 282 282 282 283 282 282 283 284 283 282 282 281 281 280 280 280 280 279
304 303 300 299 299 300 301 301 300 299 299 299 299 298 297 296 290 289 288 286 286 285 284 284 283 282 282 282 282 282 282 282 283 283 282 281 281 280 279 279 278 278 278 278
304 301 299 299 299 299 299 299 299 298 297 297 296 294 295 294 290 288 287 286 286 285 284 283 283 282 281 281 282 282 282 282 282 282 282 281 280 279 279 278 278 278 277 277

GFSCGP_850_thetae_141.txt.gz
Theta_e
306 304 305 304 304 305 307 307 305 304 305 307 305 304 303 301 300 299 298 298 298 299 299 300 301 301 302 302 302 302 301 301 301 302 303 303 303 304 305 305 305 306 308 309
304 304 305 306 306 306 306 306 305 305 305 307 304 304 301 301 299 298 298 297 297 298 300 300 300 301 301 301 301 301 300 299 298 298 298 299 300 303 304 305 306 306 306 307
304 307 307 307 307 307 306 305 306 306 308 307 305 305 304 302 300 299 298 297 296 296 296 297 298 298 299 299 298 297 296 296 296 296 297 298 299 299 301 304 305 306 306 306
304 306 306 306 307 307 307 306 307 308 307 307 306 307 305 303 301 299 298 297 296 294 295 295 296 298 298 299 297 296 295 295 295 295 296 296 296 297 300 302 303 305 307 307
305 308 308 308 308 308 308 308 308 308 307 307 307 306 305 304 303 300 298 296 295 294 293 294 295 295 296 295 294 294 294 294 294 293 294 294 296 297 299 301 303 305 307 308
304 306 306 306 308 308 309 309 310 307 306 308 307 307 304 305 304 300 298 296 295 294 294 294 295 294 295 294 293 292 293 293 294 294 293 295 296 296 298 300 303 306 309 311
305 305 305 306 306 308 309 307 309 309 309 309 310 308 306 302 299 298 296 295 295 293 293 294 294 294 294 292 292 292 292 293 293 293 293 294 295 297 298 299 302 305 309 310
307 307 308 308 307 307 308 310 311 312 313 313 311 311 306 301 298 297 296 295 294 293 293 293 293 293 292 292 293 292 292 291 292 291 291 291 294 295 297 299 300 302 308 310
306 309 310 309 309 308 308 309 309 312 311 311 309 304 303 300 299 297 296 295 294 293 292 292 292 292 292 293 292 292 291 291 290 290 290 291 293 294 294 296 299 303 304 310
307 308 308 311 309 309 310 309 313 310 315 314 308 307 306 303 301 297 293 294 294 293 293 293 292 291 292 293 293 293 292 291 289 289 289 288 290 292 292 293 296 300 301 304
306 309 309 310 311 309 311 311 311 313 311 311 306 307 304 304 300 295 294 294 294 293 292 292 290 289 290 292 294 293 293 291 291 290 289 288 290 291 291 291 293 294 295 296
306 307 306 309 309 312 311 312 313 314 313 313 304 304 299 299 296 295 295 294 293 292 290 290 288 288 288 288 292 293 293 292 291 291 290 287 290 292 292 292 291 290 291 293
310 306 310 310 310 311 313 312 312 313 312 311 310 307 299 298 296 295 294 294 292 291 290 289 288 287 287 287 287 288 290 291 292 292 293 292 289 293 293 293 291 288 290 289
311 311 310 307 308 311 312 312 310 312 314 308 306 303 302 299 297 294 294 293 291 288 289 289 287 287 286 286 286 286 287 287 288 289 290 289 287 290 291 293 293 294 289 291
310 311 308 311 311 311 311 309 309 309 309 309 305 306 301 299 298 294 294 292 291 288 288 288 287 286 286 286 285 285 285 286 286 286 286 286 285 284 284 285 286 287 288 290
309 311 309 308 310 312 310 309 309 309 307 308 306 305 296 297 295 294 293 291 290 288 288 288 287 286 286 285 286 285 284 284 284 285 284 284 284 284 285 285 285 285 285 286
310 310 310 311 308 311 311 306 306 306 305 306 306 303 295 295 295 294 293 291 290 288 287 287 287 286 285 285 285 285 285 284 284 284 284 284 284 284 284 284 284 285 285 286
309 309 309 310 309 311 306 304 303 305 305 303 300 296 296 296 295 294 293 291 290 287 286 286 286 286 285 285 285 285 285 284 284 284 284 283 284 284 284 284 283 284 284 285
309 309 309 310 310 309 306 305 304 305 305 301 300 296 294 293 293 292 292 291 289 287 286 286 285 286 285 285 284 284 285 285 284 284 283 283 283 283 283 284 284 283 283 283
309 309 309 310 311 311 306 305 304 304 304 299 298 295 292 293 294 290 292 290 288 287 286 286 285 285 285 285 284 284 284 284 284 283 283 283 283 283 283 282 283 282 282 281
311 311 311 310 311 308 306 304 304 306 304 298 297 294 293 294 294 295 292 290 288 287 286 285 285 285 285 284 284 284 284 283 283 283 283 283 283 282 282 282 281 281 281 282
309 310 310 307 310 308 304 303 304 302 300 299 297 295 293 295 296 292 291 289 288 286 286 285 284 284 284 284 284 284 284 283 283 283 283 282 282 281 281 281 281 281 281 281
307 305 306 305 304 301 302 302 303 303 301 299 298 296 296 295 294 291 289 288 287 287 286 285 284 283 283 284 284 283 283 283 283 282 282 281 281 281 281 282 282 282 281 280
305 303 301 302 299 301 302 302 302 302 302 301 300 299 296 296 293 290 288 288 287 286 286 285 284 283 283 283 283 283 282 282 282 281 281 281 282 281 281 281 280 280 279 279
304 302 300 299 298 300 301 301 301 301 301 301 299 299 297 296 291 289 288 288 287 286 285 284 284 283 282 282 282 282 281 281 281 281 281 282 281 280 279 278 278 277 277 277
302 300 299 299 300 300 299 301 300 301 300 300 299 297 295 295 292 289 288 287 286 285 285 284 283 282 282 281 281 282 282 281 282 282 281 281 280 279 278 278 277 277 276 276

GFSCGP_850_thetae_144.txt.gz
Theta_e
305 303 303 303 303 304 306 306 305 304 303 306 304 304 302 301 300 299 298 298 298 299 298 298 299 299 300 300 301 301 302 302 301 302 301 301 299 300 302 303 304 305 306 305
302 303 304 305 304 305 305 306 305 304 304 304 303 304 302 301 299 298 298 298 298 298 299 299 299 299 299 300 300 301 300 298 298 297 297 296 296 296 298 300 302 302 306 306
302 306 305 305 305 306 305 305 305 305 306 305 304 304 302 301 299 298 298 297 297 296 296 297 298 298 299 300 300 299 298 297 297 296 295 295 295 296 295 296 299 301 304 305
303 304 305 305 305 306 306 305 306 305 306 306 305 306 305 301 300 298 297 297 296 296 296 296 296 297 298 299 298 298 298 297 295 295 294 293 292 293 294 295 297 299 302 304
306 306 307 305 305 306 306 307 306 306 306 307 306 306 305 302 302 299 297 296 295 295 294 295 296 297 298 298 299 299 298 296 295 293 293 292 291 292 293 295 296 298 301 305
303 305 305 305 307 307 307 308 308 306 305 307 307 306 309 303 303 299 297 296 295 294 295 295 296 297 298 298 298 297 297 295 293 293 291 290 290 292 294 295 296 298 300 303
305 305 304 305 305 305 307 307 310 310 309 309 307 306 307 302 300 299 296 295 295 294 294 294 295 296 297 297 296 296 294 293 292 291 289 289 289 291 293 294 295 297 300 304
305 307 306 306 304 305 306 307 309 311 312 310 309 308 306 301 298 297 296 295 294 294 293 293 294 294 296 296 296 295 294 293 291 290 288 287 288 289 289 291 294 296 299 303
304 306 308 308 308 307 307 308 308 310 311 313 309 304 303 299 298 296 295 295 294 293 293 293 292 291 293 295 295 295 294 293 292 290 288 288 287 287 288 290 293 295 298 301
305 305 306 308 310 307 309 309 312 313 315 314 307 308 307 303 301 296 292 294 294 293 293 292 289 289 290 293 294 295 295 294 293 292 289 287 287 288 288 289 291 292 295 298
306 305 307 307 309 311 311 310 312 312 312 312 305 306 302 301 302 295 292 294 294 293 291 290 288 288 288 289 290 292 292 295 295 293 291 290 289 289 288 289 290 291 293 296
304 303 303 306 307 309 311 312 312 314 315 313 306 309 298 299 298 296 294 294 293 291 290 289 287 287 288 287 287 288 289 290 292 290 290 292 291 290 289 291 291 291 292 292
307 305 307 308 306 309 311 312 312 313 312 314 311 305 299 298 296 295 295 294 292 290 289 288 287 286 287 286 286 287 287 287 287 287 286 286 289 291 291 292 294 294 294 294
309 308 308 307 306 309 312 310 312 312 314 312 311 307 302 299 297 294 294 294 292 289 289 288 286 286 286 285 285 286 286 285 286 286 285 285 285 285 285 289 294 293 293 291
308 308 306 308 310 310 309 310 309 311 310 312 310 307 304 300 297 295 294 293 291 288 289 288 286 286 286 285 285 285 285 285 285 285 285 284 284 284 284 285 285 285 285 285
307 306 306 303 309 310 310 309 308 309 309 309 308 305 299 299 297 294 294 292 291 288 288 288 286 286 285 286 285 285 284 284 284 284 284 284 284 284 284 283 284 284 284 284
308 308 309 311 309 311 312 308 307 308 307 308 308 306 296 296 295 294 293 292 291 288 288 287 286 286 285 285 285 285 284 284 284 284 283 283 283 283 283 283 283 283 283 283
309 308 308 312 309 310 305 304 304 306 307 304 301 297 296 296 295 295 295 293 291 288 287 287 286 285 285 285 285 285 284 284 284 284 283 283 283 283 283 283 282 282 282 282
307 309 310 311 311 308 308 305 304 305 306 303 301 296 294 294 294 292 293 293 291 288 286 286 286 286 285 285 285 285 285 284 284 283 283 283 283 283 282 283 282 282 282 282
307 307 310 309 310 310 308 304 304 303 305 300 298 295 294 294 297 292 292 292 290 287 286 286 285 285 285 284 284 284 284 284 284 283 283 282 282 282 282 281 281 281 281 281
310 310 310 310 311 310 306 303 303 306 303 299 298 295 293 295 295 295 293 291 289 287 286 286 285 285 285 284 284 284 284 284 283 283 283 283 283 282 281 281 281 280 280 280
308 309 307 308 311 310 303 303 304 302 300 299 298 297 294 295 296 293 292 290 288 287 286 285 285 285 284 284 284 284 284 283 283 283 283 283 282 282 282 281 281 281 280 280
309 307 307 307 306 301 302 302 302 303 302 300 299 297 296 295 294 292 290 289 288 287 286 285 284 284 284 284 283 283 283 283 283 283 282 282 281 281 281 281 281 282 281 280
305 303 303 303 300 300 302 302 302 302 302 301 300 299 296 296 293 291 290 289 288 287 286 285 284 283 283 284 284 283 283 283 282 282 282 281 281 280 280 280 280 280 280 279
304 303 302 300 298 300 301 301 301 301 301 300 299 299 297 296 293 291 290 289 288 287 286 285 284 283 283 283 283 283 282 283 282 282 281 281 280 280 280 279 279 278 277 276
302 301 300 300 300 300 299 301 301 301 300 300 300 297 295 295 293 290 289 290 288 287 286 285 284 283 282 282 282 282 282 282 282 282 281 281 280 280 280 279 278 277 276 275

GFSCGP_850_thetae_147.txt.gz
Theta_e
304 306 307 307 305 305 306 307 307 308 307 308 309 307 306 302 301 301 300 299 298 299 298 299 299 300 301 302 302 302 303 302 301 302 302 302 302 301 301 302 302 302 303 303
305 306 307 305 305 306 307 308 308 308 307 307 308 308 305 303 303 301 300 298 297 297 298 299 299 300 301 301 301 301 300 300 298 297 297 297 297 298 297 298 298 300 301 301
307 308 305 305 306 307 307 307 307 308 308 306 307 309 307 304 301 299 298 297 297 297 297 298 299 299 300 300 300 299 298 298 297 297 296 295 295 294 294 294 295 297 298 299
305 305 305 306 307 307 308 307 308 308 308 310 307 312 309 306 304 301 299 297 296 296 296 297 298 299 299 299 298 298 298 297 296 295 294 292 290 290 290 292 293 295 297 299
308 306 307 306 306 306 307 307 308 308 308 308 308 309 311 305 306 304 299 297 296 295 296 297 297 299 298 298 298 298 298 297 296 294 292 290 289 289 290 290 292 295 297 299
305 304 306 308 307 307 307 307 309 308 308 310 310 309 312 310 308 303 299 297 295 295 296 296 296 297 297 298 298 299 298 297 297 295 293 289 288 288 289 290 291 294 296 300
307 309 308 305 306 306 306 308 310 312 312 312 310 309 311 306 304 303 300 297 295 295 295 295 295 295 297 298 298 298 299 298 297 296 293 288 289 287 288 289 290 292 295 299
308 309 307 305 306 307 307 307 310 312 312 312 309 311 313 303 300 299 297 296 294 294 294 294 292 292 294 296 297 296 298 298 295 295 293 289 287 286 287 288 289 291 293 295
308 307 307 307 307 308 309 309 308 310 311 314 312 313 305 301 299 297 296 295 294 294 294 292 290 290 292 293 294 293 296 296 294 295 294 290 288 288 288 289 289 289 292 295
306 308 306 307 310 309 310 309 312 312 315 315 313 313 314 305 302 298 296 294 293 293 293 292 289 289 288 288 290 291 293 292 289 293 294 291 290 289 289 290 290 288 290 294
306 307 307 307 310 311 311 311 312 312 313 316 315 314 306 306 305 301 295 294 293 293 292 291 289 288 287 288 288 289 289 288 287 288 290 294 294 292 291 290 290 289 290 290
306 308 309 307 307 309 310 310 311 314 314 314 314 316 301 301 303 300 295 294 293 292 291 290 288 287 286 287 287 287 287 287 286 287 287 286 291 294 294 293 291 290 289 292
307 308 309 309 309 309 311 312 312 312 312 314 315 317 301 299 299 298 296 294 291 291 290 289 287 286 286 286 286 286 287 286 286 286 286 286 286 286 286 288 293 292 292 292
308 309 308 311 310 310 311 311 312 312 315 314 315 314 307 302 300 297 296 293 292 290 289 287 286 286 285 285 285 286 286 285 286 286 285 285 285 285 285 285 286 285 285 286
310 311 309 309 309 311 311 312 311 312 312 313 312 311 310 306 302 298 295 293 290 289 288 287 286 286 285 285 285 285 285 285 285 285 285 284 284 284 284 285 285 284 283 284
308 310 307 305 308 310 310 309 307 309 310 310 310 311 308 301 300 296 295 292 291 289 289 287 286 286 286 285 285 285 284 284 285 285 284 284 284 284 283 283 284 284 283 282
304 306 308 309 308 309 310 309 310 309 309 309 310 310 301 300 299 297 294 293 292 289 288 287 286 286 285 285 285 285 284 283 284 284 284 284 283 283 283 283 283 283 282 283
305 307 310 311 310 311 310 305 308 308 309 309 307 303 301 300 297 296 295 293 291 289 288 287 286 285 285 285 285 284 284 284 283 283 283 283 283 283 283 283 282 282 282 281
307 309 311 310 310 310 308 306 306 307 309 305 307 301 296 295 295 294 294 294 294 290 288 287 286 285 285 285 285 284 284 283 283 283 283 283 283 283 282 282 282 281 280 280
308 309 309 310 311 310 309 305 304 304 308 302 301 299 296 296 302 300 294 294 292 288 287 286 286 285 285 285 284 284 284 283 283 283 282 282 282 282 282 281 281 281 281 280
308 310 311 311 311 310 308 304 303 307 307 300 300 298 296 299 298 296 295 292 291 288 286 286 285 285 285 284 284 284 284 284 283 282 282 282 282 282 281 281 280 280 280 280
308 310 311 310 311 310 303 303 307 305 301 300 299 297 296 296 295 293 293 291 289 287 286 285 285 285 285 284 284 284 284 283 283 283 282 282 282 282 282 281 281 280 279 279
309 308 309 309 309 303 302 302 302 303 302 301 300 298 297 295 293 293 291 289 288 287 286 285 285 285 284 284 283 284 284 283 283 283 283 282 282 282 281 281 281 280 280 279
306 304 307 306 304 302 302 302 302 302 302 302 300 299 297 296 293 291 290 288 287 286 286 285 284 284 284 284 283 283 283 283 282 282 282 282 281 281 281 280 280 279 279 278
306 304 305 305 302 300 301 302 302 302 302 301 300 299 297 296 294 292 290 289 288 287 286 285 284 283 283 284 284 283 283 283 282 282 282 281 281 280 280 280 279 278 277 277
303 305 307 310 302 302 300 302 301 301 301 300 300 297 296 296 295 292 291 290 288 287 286 285 284 283 283 283 283 283 282 282 282 282 281 281 280 280 279 279 278 277 276 276

GFSCGP_850_thetae_150.txt.gz
Theta_e
309 313 314 314 312 311 311 312 313 314 313 311 313 314 314 310 309 310 308 307 306 304 300 299 299 299 300 300 300 300 300 300 302 301 300 299 299 300 300 298 298 298 298 300
311 313 313 311 310 310 311 313 314 315 314 312 314 314 314 312 310 310 309 308 305 302 301 299 298 298 299 299 299 299 299 300 299 299 296 294 294 294 294 295 296 296 297 297
313 312 310 310 312 313 314 314 315 314 314 313 314 314 314 312 309 308 307 306 303 302 300 299 298 298 298 299 300 300 300 298 297 297 294 293 294 294 294 293 293 295 296 296
311 310 309 310 311 312 312 312 311 312 313 314 313 314 314 314 311 308 306 304 303 301 299 298 298 298 297 298 299 299 298 296 295 296 294 291 292 292 291 291 291 292 295 298
311 310 310 311 311 310 311 310 310 311 312 313 313 313 314 313 312 311 307 304 302 300 298 298 296 297 296 297 297 296 295 295 297 295 291 290 290 290 290 289 290 291 296 298
310 309 309 311 310 310 310 310 312 313 313 314 313 314 314 316 314 312 308 304 301 299 298 296 295 296 296 296 296 295 296 294 294 292 291 291 289 289 288 288 288 289 293 296
311 311 312 311 310 311 311 312 315 315 316 315 314 313 314 313 310 310 308 303 301 298 298 296 295 295 295 296 296 295 296 293 293 295 296 294 290 288 287 287 288 288 291 295
309 308 310 309 311 310 311 312 314 315 314 316 314 314 316 310 306 306 305 302 299 298 296 295 293 293 293 294 294 293 295 291 292 295 296 295 293 291 288 288 288 288 288 289
308 308 309 310 310 310 312 312 312 313 313 315 314 317 315 308 306 303 302 301 297 296 295 294 292 291 290 290 291 291 291 289 290 291 294 295 294 292 290 289 288 286 287 287
309 309 309 310 310 310 310 311 313 314 315 314 314 314 316 314 310 303 300 299 298 294 294 292 290 289 288 289 289 289 289 288 288 289 291 294 293 293 292 291 290 286 287 287
309 309 309 309 310 311 312 312 312 313 316 315 315 315 314 313 311 307 301 298 296 294 293 291 289 288 287 288 288 288 287 287 287 287 287 288 290 292 293 293 292 290 291 289
309 309 311 310 310 310 310 311 311 314 314 315 316 318 308 308 310 307 302 298 295 293 292 290 288 287 287 287 287 287 287 286 286 286 286 286 285 285 286 287 287 288 291 291
309 310 308 307 310 311 311 311 312 312 313 315 317 317 308 306 306 306 303 299 296 293 291 289 287 287 286 286 286 286 286 286 286 286 286 286 286 284 284 284 284 284 284 285
307 308 309 311 310 310 310 310 311 312 316 315 317 317 315 312 309 306 302 299 296 294 291 289 287 286 285 285 285 286 285 285 285 285 285 285 285 284 284 284 283 283 283 283
305 308 309 309 311 309 309 311 311 311 312 315 315 314 315 312 312 309 302 299 295 293 291 290 289 288 285 285 285 285 285 284 285 285 285 284 284 284 283 283 283 283 283 282
307 309 309 309 310 309 312 314 312 312 312 313 313 314 312 311 309 307 302 297 295 294 292 290 289 288 287 287 286 285 284 285 284 284 284 284 284 284 283 283 282 282 282 282
306 306 306 308 309 310 311 312 312 312 312 312 313 311 311 309 307 305 301 297 296 294 292 290 288 288 287 286 286 285 284 284 284 284 283 283 283 283 282 282 282 282 282 281
306 306 306 308 309 312 315 310 310 311 311 311 311 311 309 307 304 303 301 297 296 294 292 289 288 287 287 286 285 284 284 284 284 284 283 283 282 282 282 282 281 281 281 281
306 307 308 309 310 310 309 309 309 310 309 310 310 310 306 301 301 300 299 298 295 293 291 289 286 286 287 287 286 285 284 284 284 284 284 283 282 282 282 282 281 281 280 280
307 308 308 310 312 309 310 309 307 308 311 306 306 308 304 302 309 309 297 296 293 292 290 288 287 286 287 286 286 285 284 284 284 284 284 283 283 282 282 281 281 280 280 280
308 308 308 310 311 309 310 308 306 310 311 306 306 306 304 306 304 300 296 293 292 290 289 288 287 287 286 286 285 285 284 284 283 283 283 283 282 282 282 281 281 281 280 279
310 310 311 311 311 311 308 307 309 309 306 306 305 304 303 300 297 296 293 292 290 289 288 287 287 287 286 285 285 285 284 283 283 283 283 282 282 282 282 282 281 280 279 279
310 309 310 310 310 308 307 307 306 306 306 304 304 302 301 298 297 295 292 292 290 289 287 287 287 286 285 285 285 285 283 283 283 283 282 282 281 281 281 280 280 280 280 279
309 309 310 309 310 308 306 305 304 304 304 303 302 301 299 299 296 295 293 292 290 289 287 286 286 286 285 285 284 284 283 283 283 282 282 281 281 280 280 280 280 280 279 279
309 309 309 309 309 305 305 305 304 303 302 301 300 299 299 298 296 295 293 291 290 288 287 286 286 285 285 284 284 283 283 283 282 282 281 281 281 280 280 280 279 278 278 277
308 309 311 311 308 308 306 305 303 302 301 300 299 298 297 297 296 294 293 291 289 288 286 286 285 285 284 284 283 283 283 283 282 282 281 281 280 280 279 279 278 278 277 276

GFSCGP_850_thetae_153.txt.gz
Theta_e
314 315 316 317 317 316 315 315 315 316 317 316 316 316 317 316 313 313 313 312 311 310 308 304 304 304 303 303 302 302 302 301 301 300 300 300 300 300 300 300 299 299 299 297
315 315 315 315 314 314 313 314 315 316 316 317 317 317 317 317 315 314 313 313 312 310 306 304 303 304 303 303 302 301 301 300 299 299 298 298 298 298 298 299 297 297 297 296
315 315 313 313 313 313 314 315 316 316 316 317 316 316 316 317 316 314 313 313 312 309 307 304 303 303 303 302 301 301 300 299 298 298 297 297 297 297 297 295 295 294 294 295
313 313 312 312 312 313 313 314 314 314 314 315 315 317 316 317 316 314 312 311 310 307 304 303 303 303 302 301 300 300 299 298 297 297 296 295 295 294 294 293 292 292 293 293
312 313 311 312 312 312 312 312 313 313 314 315 315 315 315 316 316 315 313 311 309 307 304 303 302 302 301 300 300 299 298 297 297 296 295 294 293 292 292 291 290 291 290 291
313 312 312 312 312 312 312 312 313 314 314 316 315 315 315 317 318 317 314 311 308 305 303 301 300 301 301 300 299 298 298 296 295 294 294 293 292 291 291 289 289 289 289 290
313 313 312 311 312 312 313 314 315 315 316 317 316 316 316 316 315 314 314 310 307 304 303 302 301 300 299 299 298 296 296 294 294 293 293 292 292 292 291 289 288 288 288 289
309 310 311 311 311 311 312 313 314 313 313 314 314 316 318 314 311 311 311 309 306 304 303 301 298 297 296 296 296 295 293 292 293 292 293 292 292 292 292 290 289 288 288 288
309 310 310 310 310 311 312 312 312 312 313 314 313 315 315 314 311 309 308 307 304 303 302 300 297 295 294 294 294 292 290 289 291 291 291 292 294 293 293 293 292 289 287 286
309 310 310 310 311 311 312 312 313 314 316 315 315 315 318 317 315 307 305 305 304 299 300 298 296 293 291 290 293 289 288 288 288 289 288 288 290 293 291 290 291 292 291 290
308 310 311 310 311 311 312 313 312 312 314 316 317 316 316 316 316 312 305 302 302 300 296 295 293 290 288 288 291 288 288 287 288 288 287 287 286 286 285 285 285 285 288 292
310 311 313 311 311 311 311 311 313 316 314 314 317 320 315 313 315 313 307 303 300 298 296 296 291 289 287 287 287 287 287 286 287 287 287 286 285 284 284 284 282 283 284 285
309 311 311 310 309 308 309 310 311 312 314 315 317 317 314 312 311 312 310 306 302 298 293 292 290 288 286 286 286 286 286 286 286 286 285 285 286 286 284 284 284 283 282 283
307 309 309 311 310 310 311 313 312 313 315 317 317 317 315 314 314 313 310 307 303 299 295 292 289 287 286 286 286 285 286 286 286 286 287 286 285 286 286 285 285 285 284 283
307 308 308 308 308 309 310 311 310 309 310 314 315 312 312 313 314 313 312 306 302 299 296 293 291 288 286 285 287 288 288 287 287 285 286 286 286 286 286 285 285 285 285 284
308 308 308 312 309 309 311 312 313 311 311 311 311 312 313 312 312 312 311 305 302 299 296 294 293 291 290 289 289 288 288 287 287 287 286 286 285 285 285 285 284 284 284 284
309 309 309 311 308 308 310 313 312 310 310 311 312 312 312 312 311 310 309 305 302 299 296 294 292 291 290 289 288 288 288 287 287 286 286 285 285 285 285 284 284 283 283 283
308 308 308 310 308 309 309 310 311 312 312 311 311 311 311 311 309 309 308 304 301 298 296 293 291 291 289 289 288 288 287 287 287 286 285 285 285 285 284 284 284 283 282 282
308 309 309 310 309 307 308 310 311 311 311 311 311 311 311 307 306 305 305 303 300 298 296 293 290 289 290 289 288 288 287 286 286 285 284 284 284 284 284 283 283 283 282 281
308 308 309 309 308 308 310 311 310 310 311 310 309 310 309 306 311 311 303 301 299 296 294 292 289 289 290 289 288 288 287 286 285 285 284 284 284 283 283 283 282 282 282 282
310 310 311 310 310 309 309 311 309 310 312 308 308 309 308 309 308 304 301 299 296 295 294 291 290 290 289 289 288 288 287 285 284 284 284 284 283 283 283 283 282 282 282 281
310 310 311 310 310 310 309 310 310 311 309 309 308 308 308 304 302 300 298 296 295 295 292 291 290 290 289 288 288 287 286 285 284 284 283 283 283 283 283 283 282 282 282 282
311 310 311 310 311 311 310 310 309 308 309 308 308 306 306 302 301 299 295 295 295 293 292 291 290 289 289 288 288 288 287 286 285 285 284 283 283 282 282 282 282 283 282 282
310 309 311 311 311 310 310 309 308 307 308 307 306 305 304 303 301 298 296 296 294 292 291 290 290 289 288 288 287 287 286 285 285 285 284 283 283 283 283 282 282 281 281 282
310 311 311 311 310 309 309 309 308 306 306 305 304 304 303 302 300 298 298 296 294 292 291 290 289 289 288 287 287 286 285 285 285 284 284 283 282 283 282 281 281 280 279 278
310 310 312 312 310 310 309 309 307 306 305 304 303 302 302 301 300 299 297 295 294 292 291 289 289 288 287 287 286 286 285 284 285 284 283 283 283 282 282 282 280 278 278 277

GFSCGP_850_thetae_156.txt.gz
Theta_e
315 316 316 316 317 318 317 317 317 316 316 317 317 317 317 317 316 315 315 314 313 312 309 306 305 305 305 305 304 304 303 304 304 304 303 303 302 301 300 300 300 299 298 297
315 315 317 316 316 316 315 315 315 314 315 316 316 317 318 318 318 316 315 314 313 311 308 305 305 305 305 304 303 303 302 302 302 302 300 301 300 299 298 298 297 296 295 294
315 316 316 315 315 315 314 314 314 315 315 315 316 316 316 317 317 317 316 315 314 313 309 306 305 305 305 304 303 302 301 300 299 299 301 301 300 299 298 297 295 294 292 292
313 314 315 314 314 313 313 313 314 314 314 314 315 315 314 315 315 317 315 314 313 310 307 306 305 305 304 303 301 300 300 298 297 298 300 299 298 296 295 295 294 292 291 291
313 314 313 312 312 313 313 313 313 313 313 313 312 313 314 315 315 317 315 313 311 309 307 305 304 304 303 301 301 300 299 297 295 296 298 298 296 295 295 296 294 292 291 290
313 313 313 312 312 312 312 312 312 313 314 315 314 314 315 318 318 317 315 312 311 308 306 304 303 303 303 302 300 299 298 296 294 294 295 297 296 295 294 294 294 291 291 290
311 311 312 312 311 312 312 312 315 316 316 316 315 315 318 316 316 316 315 312 310 307 305 303 303 302 301 300 299 297 295 295 294 293 293 294 295 296 294 292 291 290 290 290
309 310 311 313 312 312 311 313 316 314 314 313 312 312 319 314 313 314 313 311 308 306 305 304 301 300 298 298 297 296 292 293 294 291 291 291 293 295 292 291 290 290 289 287
310 310 311 311 311 310 310 312 311 312 313 314 313 316 316 314 311 309 311 309 307 306 304 302 299 297 296 296 295 292 290 290 291 291 290 289 290 289 288 287 286 288 291 290
309 310 310 311 311 311 310 311 312 315 314 314 315 315 320 318 316 310 308 309 306 305 304 301 298 295 294 293 294 290 288 288 289 289 288 287 287 286 286 285 285 285 286 289
308 309 309 310 310 310 311 312 312 313 314 315 316 318 316 318 318 312 308 306 306 303 302 299 296 295 290 290 292 290 289 287 287 288 287 286 286 285 285 285 284 283 284 285
309 310 314 311 311 312 311 311 311 314 313 316 317 318 317 316 316 315 310 306 304 303 300 298 295 292 288 289 289 288 288 287 287 286 286 287 286 286 285 285 285 284 283 283
309 311 309 311 312 311 310 309 311 313 313 313 316 318 316 314 314 313 312 308 304 301 297 295 293 290 288 288 287 287 287 287 287 288 286 286 288 287 286 286 286 286 284 284
307 307 309 314 311 309 308 309 310 313 316 315 315 314 315 314 314 314 313 311 305 301 296 293 292 290 288 287 287 286 286 287 287 288 288 287 287 287 287 286 286 285 285 283
307 308 308 307 307 308 309 309 310 311 312 313 313 311 312 312 313 314 314 311 306 302 298 295 292 291 288 286 286 288 288 288 288 286 287 287 286 286 286 285 285 285 284 283
308 312 309 308 308 308 309 310 310 309 309 309 310 311 311 311 312 312 313 309 306 302 300 296 294 290 287 288 290 290 289 288 288 287 287 287 286 286 285 285 284 284 283 283
309 311 310 311 310 309 311 310 311 309 309 310 310 311 311 312 313 312 311 307 306 302 300 296 294 292 291 290 289 289 289 288 288 287 287 286 286 286 285 285 284 283 283 282
308 309 310 312 310 311 310 308 308 308 309 311 311 311 312 312 310 311 311 307 305 302 299 295 294 291 290 289 289 289 288 288 287 287 286 286 286 285 285 284 284 283 282 281
309 309 310 311 311 309 308 308 308 311 312 312 311 311 310 309 308 307 308 306 303 300 298 294 292 291 290 289 289 289 288 288 287 286 285 285 285 285 284 284 284 283 283 282
309 310 310 310 311 310 308 310 310 310 312 309 309 311 310 308 311 309 305 303 301 299 296 294 292 291 290 289 289 289 288 287 286 285 285 284 284 284 284 284 284 283 283 283
311 311 312 312 310 308 308 311 311 311 312 310 309 309 309 310 310 305 302 301 299 297 295 293 291 291 291 290 289 289 288 286 285 285 284 284 284 284 284 283 284 284 283 283
312 312 311 311 309 310 309 311 311 312 310 309 309 309 309 306 304 302 300 298 297 296 294 292 291 291 290 290 289 289 287 285 285 285 284 284 283 283 283 284 283 283 283 283
312 311 311 310 311 311 310 311 310 310 310 309 309 308 307 304 303 300 298 298 297 296 293 292 291 291 290 289 289 288 287 286 286 285 284 284 283 283 283 283 283 283 283 282
310 310 311 312 312 310 310 310 309 308 309 308 308 307 305 304 302 299 298 297 296 294 293 292 291 290 290 289 289 289 287 286 286 286 285 284 284 283 283 283 282 281 281 282
311 310 312 312 311 310 310 310 310 308 308 307 306 306 305 304 302 299 298 297 295 294 293 292 291 290 289 289 288 288 287 286 286 285 285 284 283 283 283 282 281 281 279 279
310 310 312 314 311 310 310 309 309 308 307 306 305 304 304 303 301 299 298 297 295 294 292 291 291 290 289 288 288 287 286 286 286 285 284 284 283 283 283 283 282 281 280 278

GFSCGP_850_thetae_159.txt.gz
Theta_e
314 311 311 311 311 313 314 314 312 312 312 311 311 310 311 313 313 313 312 312 311 310 308 308 307 306 305 305 304 303 304 303 303 304 304 304 303 302 302 301 300 299 299 298
311 311 312 314 314 314 314 313 311 311 312 313 310 311 312 312 313 314 313 312 310 308 307 306 306 305 305 305 303 303 302 301 300 301 302 303 302 302 301 301 300 299 299 296
311 313 314 315 314 313 313 312 311 311 312 311 311 312 312 312 313 314 315 313 309 308 307 305 305 305 305 304 303 302 301 299 298 299 302 302 301 301 301 301 300 298 296 292
310 312 313 312 312 312 311 312 312 312 311 311 311 311 310 312 312 312 314 310 308 307 305 305 305 305 304 303 302 300 300 297 295 297 299 298 299 300 299 298 298 297 295 293
311 311 312 312 312 312 312 312 312 312 311 309 310 309 309 311 311 312 309 307 307 306 305 305 304 304 303 302 301 299 299 297 294 294 295 295 296 297 296 296 297 298 296 293
310 312 312 312 312 311 312 312 312 311 311 311 312 311 312 315 316 313 309 307 307 306 305 304 304 303 302 301 300 299 297 296 293 293 293 293 295 294 293 291 292 297 297 294
310 310 310 311 310 310 310 311 312 313 312 313 312 311 317 314 313 313 310 307 306 305 304 303 303 302 301 301 299 297 295 294 294 292 291 292 293 290 289 289 289 293 294 296
309 309 309 311 311 311 312 310 313 315 313 311 310 310 315 312 311 309 308 307 306 305 304 302 302 301 300 299 298 297 293 293 292 291 290 290 289 289 288 287 287 287 288 293
309 310 309 311 311 310 309 309 309 310 310 310 310 312 313 311 310 309 308 307 306 305 304 302 301 300 298 297 296 293 290 291 291 291 289 289 288 287 286 286 286 286 286 286
308 308 309 309 310 309 309 309 309 310 312 312 311 311 317 316 311 310 307 307 306 305 303 301 300 299 297 295 294 290 289 289 290 289 288 287 287 286 286 286 285 285 285 285
307 307 307 308 309 309 309 310 310 310 312 314 313 309 313 314 315 310 308 307 306 305 302 300 299 298 294 293 293 290 288 288 288 288 287 287 286 286 286 286 285 284 284 284
308 308 307 310 309 310 310 310 310 311 311 313 312 312 312 311 315 314 310 308 306 304 302 299 298 297 290 291 291 289 289 287 287 287 287 288 287 286 286 286 286 285 284 284
308 307 308 308 309 309 309 309 309 310 312 311 305 306 314 313 313 314 313 308 306 305 302 299 297 296 291 289 288 287 287 288 288 288 286 287 288 287 286 286 285 285 284 283
307 306 307 306 309 307 307 307 308 309 306 310 310 310 310 311 312 312 312 309 305 304 302 300 297 294 289 288 287 287 287 287 288 288 287 287 287 286 286 285 285 285 284 283
306 306 307 307 307 307 307 307 307 308 307 308 307 309 309 308 308 313 312 308 304 300 300 298 295 292 288 289 286 286 286 287 287 287 287 287 286 286 285 285 284 284 284 283
307 306 307 306 308 308 307 306 306 307 308 308 308 307 306 307 311 313 310 309 303 301 300 297 295 292 291 287 287 289 289 288 288 287 287 286 286 286 285 284 284 283 283 283
307 307 308 309 309 309 308 306 307 308 308 308 307 307 306 310 311 312 312 307 303 302 299 297 295 294 289 288 290 289 288 288 287 287 286 286 286 285 285 284 283 283 282 282
306 307 307 307 308 309 305 308 308 308 307 307 310 311 311 311 310 311 311 307 305 302 300 297 294 292 291 290 289 289 288 288 287 286 286 286 286 285 285 284 284 283 282 282
305 306 309 308 308 307 307 307 307 310 310 311 311 310 309 308 308 307 309 308 305 302 299 296 294 291 290 290 289 288 288 288 287 286 286 286 286 285 285 284 284 284 283 283
306 306 307 306 309 309 307 310 310 310 308 310 310 308 308 308 304 300 306 305 303 300 298 295 293 292 290 289 289 289 288 288 287 286 285 285 284 284 284 284 284 284 284 284
307 307 308 308 309 308 307 309 309 310 310 309 308 309 308 306 307 305 304 302 301 299 296 294 293 292 290 289 289 288 288 287 286 285 285 285 284 284 284 284 284 284 283 284
308 311 309 309 311 310 309 310 310 308 310 309 309 308 308 306 304 303 302 299 298 296 295 294 292 290 290 289 289 289 288 285 285 284 284 284 284 283 283 284 284 283 283 283
310 309 311 309 306 308 309 309 310 310 309 309 308 308 308 305 303 302 300 298 296 295 294 291 291 291 290 289 289 289 288 285 285 285 284 284 284 284 283 283 283 283 283 282
310 310 310 310 308 310 310 309 308 309 309 309 308 307 306 304 302 300 298 297 296 295 292 291 291 291 290 289 289 289 287 286 285 285 285 284 284 284 284 284 283 281 281 281
306 308 310 307 306 309 309 310 310 309 308 307 307 306 305 303 301 299 298 297 296 294 292 291 291 291 290 289 289 289 288 287 286 286 285 284 284 283 283 283 282 280 280 279
307 308 309 309 309 309 310 309 309 308 307 306 306 305 304 303 301 299 297 297 295 294 292 292 291 290 289 289 289 288 288 287 286 285 285 284 284 283 283 283 282 282 281 281

GFSCGP_850_thetae_162.txt.gz
Theta_e
313 310 310 309 309 311 311 312 311 310 311 311 311 310 309 310 310 310 310 309 308 308 307 307 306 306 306 305 305 304 304 303 301 302 302 303 303 303 303 303 302 302 302 301
310 310 311 311 311 312 312 312 310 310 311 312 310 309 308 308 310 312 311 309 308 307 306 306 306 306 306 305 304 304 303 301 299 300 302 302 302 302 301 301 301 301 301 300
309 311 312 312 311 312 311 312 311 311 310 310 309 309 311 311 312 312 311 309 307 306 306 306 305 305 305 304 303 303 301 298 297 299 299 299 299 299 298 298 300 301 301 300
309 310 310 311 312 311 311 311 311 311 309 310 309 308 308 309 308 308 309 306 305 306 306 305 305 305 305 303 302 301 300 297 295 296 296 295 295 295 294 294 296 298 299 299
309 310 311 311 311 311 310 311 311 311 310 309 309 309 306 309 311 307 305 304 304 305 305 305 305 304 303 302 302 301 299 298 294 294 294 294 294 293 291 291 293 293 296 297
308 310 310 310 311 311 310 311 310 310 309 309 311 310 308 314 314 308 305 304 305 305 305 304 303 303 302 302 301 300 299 297 294 293 292 293 293 292 291 290 290 290 291 294
309 308 309 311 310 310 310 309 310 312 312 311 311 310 312 312 311 308 305 304 303 304 304 304 303 302 302 302 301 299 298 295 293 292 291 291 290 290 290 290 289 289 289 289
308 309 308 308 309 309 309 310 311 315 314 311 309 310 315 311 307 306 305 305 305 305 304 303 303 302 302 301 300 298 297 293 292 291 290 290 289 288 288 288 288 288 288 287
309 309 308 309 308 310 309 309 311 312 309 309 309 313 312 310 308 306 305 305 305 304 303 303 302 301 301 300 298 296 294 291 291 290 289 288 287 288 287 287 287 287 286 286
306 305 308 308 308 308 309 309 308 310 310 311 309 310 309 312 310 308 306 305 304 304 302 302 301 300 300 299 297 293 289 289 289 289 288 287 287 287 287 287 287 286 285 285
306 305 305 307 307 308 310 309 309 308 310 310 309 308 310 312 311 309 307 308 306 304 303 302 300 299 299 298 294 292 288 288 288 288 288 287 287 287 287 287 286 285 284 284
307 306 305 307 307 308 309 309 309 308 309 311 309 309 312 310 312 311 310 309 306 306 303 301 300 299 299 297 293 291 288 287 287 287 287 288 287 287 286 286 286 284 284 284
306 305 306 305 305 307 307 307 308 308 308 309 304 305 312 311 311 313 313 310 307 304 302 299 299 298 297 293 291 289 288 287 288 287 287 287 287 286 286 286 286 285 283 283
305 305 306 304 306 306 306 306 306 307 303 305 306 307 309 308 309 310 312 312 308 305 302 300 298 298 294 290 289 288 287 287 288 287 287 287 287 286 286 285 285 284 283 283
305 305 305 305 306 306 306 305 306 307 307 307 303 306 305 305 306 307 309 310 306 302 301 299 298 298 296 290 287 287 286 287 288 287 287 286 286 285 285 285 284 283 283 283
305 304 304 295 306 307 307 305 305 307 307 306 306 306 306 307 306 310 310 309 305 302 300 301 300 298 295 289 289 286 287 288 287 287 286 286 286 286 285 284 283 282 282 282
306 306 305 306 307 308 307 306 307 307 307 306 307 307 306 306 309 311 309 308 307 303 303 302 300 297 293 291 287 288 288 288 287 287 286 286 286 286 285 284 283 282 282 282
305 305 305 304 306 305 303 306 306 306 306 306 306 310 309 309 310 311 311 310 307 304 303 301 299 296 292 288 289 289 288 288 287 287 286 286 286 286 285 285 284 283 283 283
305 305 303 304 306 305 306 305 307 307 306 308 308 310 309 308 308 307 309 309 309 308 305 302 297 293 289 289 289 289 288 288 287 287 286 286 286 285 285 285 284 284 284 284
304 305 304 303 308 308 306 308 310 309 307 308 309 309 307 307 304 301 307 308 306 305 303 299 294 292 291 290 289 289 288 288 287 287 286 286 285 285 285 284 284 284 284 284
305 304 306 306 307 307 306 306 308 307 305 308 309 309 308 304 305 308 306 306 305 303 300 297 294 292 290 290 289 288 288 288 287 286 285 285 284 284 284 284 284 283 283 283
305 306 306 307 309 309 307 309 308 306 309 309 308 309 307 307 307 305 304 303 301 300 297 295 293 291 290 289 289 289 288 288 286 285 285 284 284 284 284 284 284 283 283 283
308 310 310 309 307 306 309 308 310 310 309 308 308 308 308 306 305 303 302 300 299 298 295 293 292 291 290 289 289 289 288 287 285 285 284 284 283 283 283 283 283 283 283 282
308 307 306 305 307 308 308 309 309 309 308 309 308 308 307 306 303 302 300 298 297 296 295 293 292 290 290 289 289 289 288 287 285 285 284 283 283 283 283 283 282 281 281 280
305 305 307 307 307 307 307 308 309 309 308 308 308 307 307 305 302 301 299 297 297 296 293 292 291 291 291 290 289 289 288 287 286 285 284 284 284 284 284 283 282 281 280 280
304 305 307 309 308 308 308 309 308 309 307 307 306 305 305 304 303 300 299 297 296 295 292 291 291 291 290 289 289 289 288 288 287 286 285 284 284 283 283 283 283 282 281 281

GFSCGP_850_thetae_168.txt.gz
Theta_e
310 310 310 308 307 309 309 309 308 307 307 310 308 308 306 308 309 307 307 308 308 308 307 307 306 306 306 306 306 305 304 303 302 301 301 301 301 299 298 297 297 298 300 300
307 308 309 309 309 309 309 309 308 307 307 310 307 307 306 305 307 307 305 305 306 306 305 305 305 305 305 305 305 304 303 301 300 300 300 299 298 296 295 295 295 296 297 298
307 308 309 309 309 309 308 309 308 308 308 308 306 306 306 306 307 307 306 307 305 306 305 304 304 304 304 305 305 304 302 299 298 298 297 296 295 294 294 294 294 294 294 294
307 308 309 309 308 307 307 307 308 310 308 308 307 307 306 307 309 304 303 305 304 304 304 304 303 304 305 305 304 303 301 298 296 296 295 294 294 294 293 293 292 292 292 292
308 309 309 309 310 308 308 309 309 309 308 307 307 307 303 309 311 307 302 303 303 304 304 304 304 304 304 303 302 300 299 299 296 294 294 294 293 293 292 291 291 290 291 290
306 308 308 307 309 309 309 308 307 306 305 306 306 306 303 309 312 307 304 303 303 303 304 304 304 304 303 302 301 299 299 298 296 293 293 292 292 291 291 291 290 290 290 289
306 307 307 307 308 308 307 306 308 308 309 308 308 306 304 310 309 308 303 303 303 304 304 305 305 304 303 301 300 299 299 299 295 293 292 291 291 291 290 290 290 289 289 289
306 307 307 307 308 307 306 307 309 311 313 310 306 307 306 308 305 305 305 304 304 304 305 306 305 304 302 300 301 300 299 297 294 292 291 290 290 290 290 290 289 289 288 288
306 307 306 306 306 307 309 308 308 310 307 308 306 306 308 307 306 303 303 303 304 304 304 303 303 303 302 302 302 300 299 296 293 291 290 290 290 290 290 289 288 287 286 286
307 306 305 306 306 306 307 307 307 309 313 310 307 306 308 309 307 304 302 303 304 304 303 304 304 303 302 301 300 299 297 293 291 290 289 289 289 289 289 287 286 286 285 285
303 303 304 305 305 305 306 306 307 307 308 308 307 307 304 308 308 305 304 304 305 304 304 304 303 302 301 300 299 297 294 291 290 289 289 289 289 288 287 286 285 285 285 285
305 303 304 304 304 305 306 306 306 308 306 308 303 307 304 306 306 306 305 305 306 305 304 304 303 302 300 299 298 297 293 290 288 288 288 289 288 287 286 286 285 285 285 285
304 303 304 303 302 303 306 305 305 305 305 306 302 305 305 308 308 309 309 309 308 308 306 304 302 301 299 299 298 296 291 288 288 287 288 288 288 287 286 285 285 285 285 284
303 302 303 303 304 303 304 305 305 304 301 303 305 305 304 303 305 306 308 310 310 309 309 306 301 300 299 298 297 295 290 287 287 287 287 287 287 286 286 285 284 284 284 283
303 303 302 303 302 304 304 303 303 304 304 304 303 302 302 301 301 303 304 305 305 305 305 305 302 300 298 297 296 292 289 288 288 288 287 287 287 286 285 285 283 283 283 283
302 303 301 295 301 303 303 302 302 304 305 304 304 304 303 304 303 303 304 304 304 304 304 303 301 299 298 297 296 292 289 288 288 288 287 287 286 286 285 284 282 282 282 282
305 304 304 305 303 304 305 301 304 304 304 304 305 304 303 302 302 303 305 305 305 305 305 303 302 300 298 297 296 293 289 287 288 287 287 287 286 286 285 283 282 282 282 282
305 305 305 304 305 304 302 302 303 303 303 303 304 304 304 303 304 305 307 309 308 307 306 303 300 299 298 297 295 291 287 288 287 287 287 286 286 286 284 283 282 283 282 282
304 304 305 306 305 304 303 302 302 302 303 302 302 303 303 305 307 307 309 309 309 308 307 306 304 302 298 297 295 288 287 287 287 287 287 286 286 285 285 284 283 283 283 282
303 303 305 303 306 303 303 304 307 306 306 304 304 304 305 305 303 300 307 309 309 307 306 306 304 302 299 297 293 288 287 288 288 287 287 286 286 285 284 284 284 284 283 282
304 302 304 305 306 304 303 305 305 306 304 304 307 307 306 304 304 305 306 307 307 306 305 303 301 299 297 295 289 288 288 288 288 287 286 286 285 285 284 284 284 283 283 282
304 303 304 305 306 305 305 305 306 304 307 307 307 307 307 307 306 306 305 306 306 305 303 300 298 296 294 291 288 289 289 288 287 287 286 286 285 284 284 284 283 283 283 282
301 303 303 302 306 305 305 305 305 305 306 307 307 307 307 308 307 306 305 305 304 303 301 298 296 293 290 289 289 289 289 288 287 287 286 286 285 284 283 283 283 283 282 282
305 305 305 306 305 304 304 305 306 307 307 307 307 308 307 307 307 306 304 303 302 301 299 297 294 293 292 291 290 289 288 288 288 287 286 285 284 283 283 283 283 283 282 281
303 305 304 302 303 303 305 306 308 307 308 307 308 308 307 307 306 305 303 302 301 300 298 296 295 293 292 291 289 289 288 288 288 287 285 284 283 283 283 283 283 282 281 280
302 302 300 300 301 303 306 306 305 305 307 308 308 307 306 306 306 304 303 301 300 298 297 295 294 292 291 290 289 289 288 288 288 286 284 284 283 283 283 283 283 283 281 281

GFSCGP_850_thetae_171.txt.gz
Theta_e
309 313 313 311 310 310 310 311 312 311 311 310 312 311 311 310 310 311 310 309 308 307 309 308 307 307 307 307 306 306 306 304 302 302 302 301 300 298 296 296 296 296 297 297
309 311 311 310 309 310 311 311 312 311 310 310 311 311 311 309 309 309 309 307 306 308 308 307 306 306 306 306 305 305 303 302 301 301 300 299 297 296 295 295 295 294 294 295
310 310 309 310 310 310 310 310 311 311 310 309 310 312 310 308 308 306 306 307 307 308 307 306 305 305 305 305 305 304 302 300 299 298 298 297 296 295 294 294 294 294 294 294
308 308 309 309 310 310 310 309 310 310 311 312 309 312 311 309 310 307 305 305 305 304 304 304 304 305 305 305 304 303 301 299 297 296 295 295 294 294 293 293 293 293 292 292
309 309 309 310 310 308 311 309 309 310 310 310 310 311 310 309 312 310 306 304 303 304 304 304 304 305 305 305 304 302 301 299 296 294 294 293 293 292 292 292 292 292 291 291
308 307 308 309 309 309 309 309 308 309 309 311 311 310 309 310 312 311 306 304 303 302 303 304 305 305 305 304 303 303 301 300 296 294 293 292 292 291 291 291 291 291 290 290
306 307 307 307 308 308 309 310 311 311 312 310 308 308 310 308 311 311 310 305 303 303 303 304 304 304 304 303 302 301 300 297 296 293 292 291 291 291 290 290 290 289 289 289
308 309 307 307 309 309 309 310 311 310 310 311 308 311 312 311 308 306 306 305 304 303 303 304 304 303 303 302 301 300 298 297 295 292 291 290 290 290 290 290 289 288 288 288
308 309 307 306 307 308 309 310 310 310 309 311 310 311 309 310 309 306 305 304 304 304 303 302 303 303 303 302 301 299 299 298 294 291 289 289 289 290 290 289 288 288 287 287
309 310 306 306 305 307 309 309 311 311 311 311 311 310 311 311 312 310 305 304 304 304 303 303 304 303 303 302 300 299 298 296 292 290 289 289 289 289 289 288 287 287 287 287
306 308 307 305 306 307 307 307 308 309 312 310 310 311 309 310 310 311 310 305 305 304 304 304 304 303 303 301 300 299 298 296 292 290 289 288 288 288 288 287 287 287 286 286
305 305 307 306 305 305 307 307 307 308 306 310 309 310 307 310 311 309 309 307 306 305 304 304 304 303 302 300 300 299 298 294 290 288 288 288 288 288 287 287 286 286 285 285
306 306 306 305 305 305 307 306 307 307 307 307 310 310 307 309 311 310 310 309 308 307 306 304 304 303 302 300 300 299 297 292 289 288 288 288 288 287 287 286 285 284 284 284
304 304 305 308 305 305 305 306 306 307 308 307 309 308 307 307 306 306 306 308 308 309 308 306 303 303 302 301 300 299 295 291 289 288 288 288 287 287 286 285 284 284 284 283
305 303 304 304 303 303 304 304 305 305 306 306 306 305 306 304 304 304 303 303 303 303 307 307 306 303 301 299 298 297 294 290 288 287 288 287 287 286 285 284 283 283 283 283
304 304 303 301 303 304 305 305 305 305 305 305 305 305 305 304 304 304 303 303 303 303 304 304 303 302 301 299 298 297 293 290 287 287 288 287 286 286 285 283 283 282 283 283
305 305 306 304 304 305 305 304 305 305 304 304 305 306 305 305 305 305 305 305 305 306 305 304 303 302 300 298 298 297 294 288 287 288 288 287 286 286 284 283 282 283 283 283
306 306 306 305 305 306 305 303 304 304 305 305 305 305 305 305 305 304 304 304 306 308 307 306 305 302 299 298 297 296 291 288 288 291 287 286 286 286 284 282 282 283 283 283
305 306 306 306 304 304 304 304 303 304 306 305 304 305 304 303 304 307 306 308 308 308 307 306 304 302 299 297 296 294 291 289 288 290 287 286 286 285 284 283 283 283 283 282
305 305 306 305 306 304 304 305 305 306 305 306 306 307 306 306 310 310 306 308 308 307 307 306 305 301 298 296 296 293 290 287 289 287 287 286 286 285 284 284 284 284 283 283
305 304 306 305 304 305 305 304 305 306 305 306 307 307 307 308 308 305 306 307 307 306 306 305 303 302 298 296 295 292 288 288 288 287 287 286 286 285 284 284 284 284 283 283
304 305 304 305 305 304 304 305 307 306 305 305 307 307 307 306 306 305 305 306 306 305 304 302 301 300 298 296 295 291 288 288 288 287 286 286 285 285 284 284 284 284 283 283
303 305 306 306 306 305 305 305 304 304 305 306 307 307 307 307 306 305 305 305 304 304 302 300 298 297 296 296 292 289 288 288 287 287 286 286 285 285 284 284 284 283 283 283
304 304 306 306 306 306 304 304 304 304 305 306 307 307 307 308 306 305 304 303 303 302 301 299 296 295 293 291 289 289 289 288 287 287 286 286 285 284 284 283 283 283 283 282
304 305 306 306 304 304 304 304 305 307 305 306 307 307 308 306 306 305 303 303 302 301 299 297 295 293 291 289 289 289 288 288 287 287 286 286 285 283 283 283 283 283 282 281
303 304 305 305 304 303 302 301 302 305 305 305 306 307 307 306 306 305 303 302 301 300 298 296 294 293 292 290 289 289 288 288 288 287 287 285 284 283 283 283 283 283 282 281

GFSCGP_850_thetae_174.txt.gz
Theta_e
314 315 317 316 314 314 313 314 314 315 315 314 315 315 316 316 315 317 318 319 319 318 314 310 308 307 307 307 307 306 306 305 304 302 302 301 300 298 296 296 296 296 296 295
314 315 315 313 313 313 314 314 315 314 314 314 315 315 316 316 315 315 316 317 318 317 312 309 307 306 306 306 306 306 305 304 302 301 301 300 297 296 295 295 295 295 294 295
314 314 312 312 312 312 313 313 313 313 313 314 314 315 316 314 313 312 312 314 315 315 312 309 307 306 305 305 305 305 305 303 301 300 299 297 295 294 294 294 294 294 294 294
311 310 310 310 311 312 313 313 313 313 313 315 314 315 315 315 315 314 312 312 313 313 312 310 307 305 305 305 305 304 303 301 300 298 297 296 295 295 293 292 292 293 293 292
312 312 312 313 313 313 313 312 313 313 314 314 314 314 315 313 313 314 314 312 312 311 311 309 307 305 304 305 304 303 302 300 298 297 296 295 293 293 292 292 292 292 291 291
311 310 311 312 312 311 312 312 313 313 314 314 314 314 313 313 313 315 313 311 310 310 309 308 306 305 303 303 303 303 301 300 298 297 295 293 292 291 291 291 290 290 290 290
311 311 311 310 311 311 312 313 313 314 315 314 312 312 313 313 315 315 315 313 310 309 308 307 306 305 303 302 303 303 301 300 298 295 293 291 291 290 290 289 289 289 289 289
311 311 311 311 311 311 312 312 313 312 313 313 313 313 315 314 313 313 312 313 311 309 308 307 307 305 303 301 301 302 301 300 297 293 291 290 290 290 289 289 289 289 289 289
310 311 311 309 310 311 312 312 312 313 313 313 313 313 314 314 314 314 312 311 311 309 308 308 307 305 303 302 302 302 301 300 296 292 290 289 290 290 289 289 288 289 288 288
312 312 310 310 309 309 310 311 312 313 313 313 313 313 314 313 312 313 315 310 311 310 308 308 306 305 303 302 301 301 300 299 294 291 289 289 289 289 289 288 288 288 287 286
311 310 309 309 310 310 310 310 310 310 311 312 313 313 312 311 311 315 315 314 308 310 308 308 306 304 303 302 300 301 300 299 294 290 289 289 289 289 289 288 287 286 286 285
309 310 310 309 309 309 310 309 310 311 310 310 311 316 311 310 311 312 313 313 311 307 308 305 305 304 302 303 300 299 300 299 294 290 288 288 289 289 288 287 286 285 285 285
309 309 308 308 309 308 308 309 309 310 310 308 314 315 311 311 311 309 310 312 311 309 308 305 304 303 304 301 301 300 300 299 294 289 288 288 288 288 287 286 285 285 285 285
306 307 308 309 308 307 308 308 308 308 311 309 312 310 310 309 309 308 308 308 306 310 309 306 304 303 303 302 302 300 299 297 293 289 288 288 287 287 286 286 285 285 285 285
306 306 306 306 306 305 305 306 306 306 306 307 310 307 308 307 307 306 305 305 305 305 305 308 305 302 303 301 300 299 298 295 290 288 288 287 287 286 286 285 285 284 284 284
306 305 305 309 305 305 307 306 306 305 305 305 305 306 306 306 305 306 307 307 307 307 306 306 307 304 301 300 298 296 296 294 290 288 288 288 287 286 285 284 284 284 284 284
306 305 305 306 306 306 307 309 307 306 306 306 306 307 306 307 307 306 308 307 308 308 307 307 306 304 300 298 297 296 293 291 289 290 289 288 287 286 285 283 283 283 284 283
306 306 306 308 307 308 307 306 305 305 305 305 306 306 307 307 307 307 306 307 308 308 308 306 304 301 299 298 297 295 292 291 294 288 288 288 286 286 284 283 284 284 284 284
306 306 307 308 306 306 306 305 305 305 306 307 308 309 310 310 309 309 309 309 310 310 307 304 304 301 298 296 295 293 292 293 288 288 290 287 286 285 284 283 284 284 283 283
306 306 307 309 309 306 305 305 306 307 307 309 310 310 311 310 313 312 308 307 307 306 304 303 302 299 297 295 293 291 291 289 288 290 288 287 286 285 284 284 284 283 283 282
308 309 309 307 307 305 305 305 306 306 306 308 308 309 310 312 311 308 305 305 305 304 302 302 300 298 297 294 292 292 292 290 290 289 287 286 286 285 285 284 284 283 282 282
305 307 307 306 306 305 304 306 306 307 306 306 307 307 308 309 309 307 305 305 304 302 302 300 298 296 295 293 293 293 292 291 289 288 287 287 286 285 285 284 284 284 283 282
305 305 306 306 304 306 306 306 305 305 304 306 307 307 308 309 309 307 305 303 302 301 300 300 297 295 294 293 293 292 291 290 289 288 287 287 286 285 285 284 284 283 283 282
304 304 305 305 304 305 304 305 306 305 305 306 305 306 307 309 309 308 304 303 301 300 298 297 296 295 294 293 293 292 290 289 289 288 288 287 286 285 285 285 284 284 284 284
304 304 304 305 306 305 305 304 305 305 306 307 306 306 308 308 309 307 304 302 301 299 297 296 295 294 294 292 291 290 289 289 288 288 287 287 286 285 285 285 285 285 284 284
303 304 305 306 304 305 304 303 303 302 304 307 306 305 306 305 306 304 303 301 300 298 297 295 294 293 291 290 290 289 289 289 288 288 287 287 286 286 285 285 285 284 284 282